Wetterdaten: Sonntag, 06.10.2013
Datum Zeit Temp. Aussen +5cm Feuchte Auss Luftdruck Regen Sonnenschein Regendauer UV Solar Windben
06.10.2013 00:00 11,8 C 10,0 C 93 % 1022,1 hPa 0,0 l/m 0 min 0 min 0,0 UV-I 0 W/m 0,0 km/h (0 Bft)
06.10.2013 00:02 11,8 C 10,0 C 93 % 1022,2 hPa 0,0 l/m 0 min 0 min 0,0 UV-I 0 W/m 0,0 km/h (0 Bft)
06.10.2013 00:06 11,6 C 10,0 C 93 % 1022,2 hPa 0,0 l/m 0 min 0 min 0,0 UV-I 0 W/m 0,0 km/h (0 Bft)
06.10.2013 00:08 11,6 C 10,0 C 93 % 1022,2 hPa 0,0 l/m 0 min 0 min 0,0 UV-I 0 W/m 0,0 km/h (0 Bft)
06.10.2013 00:10 11,5 C 10,0 C 93 % 1022,2 hPa 0,0 l/m 0 min 0 min 0,0 UV-I 0 W/m 0,0 km/h (0 Bft)
06.10.2013 00:12 11,4 C 9,4 C 94 % 1022,2 hPa 0,0 l/m 0 min 0 min 0,0 UV-I 0 W/m 0,0 km/h (0 Bft)
06.10.2013 00:14 11,4 C 9,4 C 94 % 1022,2 hPa 0,0 l/m 0 min 0 min 0,0 UV-I 0 W/m 0,0 km/h (0 Bft)
06.10.2013 00:16 11,4 C 9,4 C 94 % 1022,2 hPa 0,0 l/m 0 min 0 min 0,0 UV-I 0 W/m 0,0 km/h (0 Bft)
06.10.2013 00:18 11,3 C 9,4 C 94 % 1022,2 hPa 0,0 l/m 0 min 0 min 0,0 UV-I 0 W/m 0,0 km/h (0 Bft)
06.10.2013 00:20 11,3 C 9,4 C 94 % 1022,3 hPa 0,0 l/m 0 min 0 min 0,0 UV-I 0 W/m 0,0 km/h (0 Bft)
06.10.2013 00:22 11,3 C 9,4 C 94 % 1022,2 hPa 0,0 l/m 0 min 0 min 0,0 UV-I 0 W/m 0,0 km/h (0 Bft)
06.10.2013 00:24 11,2 C 9,4 C 94 % 1022,3 hPa 0,0 l/m 0 min 0 min 0,0 UV-I 0 W/m 0,0 km/h (0 Bft)
06.10.2013 00:26 11,2 C 9,4 C 95 % 1022,3 hPa 0,0 l/m 0 min 0 min 0,0 UV-I 0 W/m 0,0 km/h (0 Bft)
06.10.2013 00:28 11,2 C 9,4 C 95 % 1022,4 hPa 0,0 l/m 0 min 0 min 0,0 UV-I 0 W/m 0,0 km/h (0 Bft)
06.10.2013 00:30 11,1 C 9,4 C 95 % 1022,4 hPa 0,0 l/m 0 min 0 min 0,0 UV-I 0 W/m 0,0 km/h (0 Bft)
06.10.2013 00:32 11,1 C 9,4 C 95 % 1022,4 hPa 0,0 l/m 0 min 0 min 0,0 UV-I 0 W/m 0,0 km/h (0 Bft)
06.10.2013 00:34 11,1 C 9,4 C 95 % 1022,4 hPa 0,0 l/m 0 min 0 min 0,0 UV-I 0 W/m 0,0 km/h (0 Bft)
06.10.2013 00:36 11,0 C 9,4 C 95 % 1022,4 hPa 0,0 l/m 0 min 0 min 0,0 UV-I 0 W/m 0,0 km/h (0 Bft)
06.10.2013 00:38 10,9 C 9,4 C 95 % 1022,5 hPa 0,0 l/m 0 min 0 min 0,0 UV-I 0 W/m 0,0 km/h (0 Bft)
06.10.2013 00:40 10,9 C 9,4 C 95 % 1022,5 hPa 0,0 l/m 0 min 0 min 0,0 UV-I 0 W/m 0,0 km/h (0 Bft)
06.10.2013 00:42 10,9 C 9,4 C 95 % 1022,5 hPa 0,0 l/m 0 min 0 min 0,0 UV-I 0 W/m 0,0 km/h (0 Bft)
06.10.2013 00:44 10,9 C 9,4 C 95 % 1022,6 hPa 0,0 l/m 0 min 0 min 0,0 UV-I 0 W/m 0,0 km/h (0 Bft)
06.10.2013 00:46 10,8 C 8,9 C 95 % 1022,5 hPa 0,0 l/m 0 min 0 min 0,0 UV-I 0 W/m 0,0 km/h (0 Bft)
06.10.2013 00:48 10,8 C 8,9 C 95 % 1022,5 hPa 0,0 l/m 0 min 0 min 0,0 UV-I 0 W/m 0,0 km/h (0 Bft)
06.10.2013 00:50 10,8 C 8,9 C 95 % 1022,5 hPa 0,0 l/m 0 min 0 min 0,0 UV-I 0 W/m 0,0 km/h (0 Bft)
06.10.2013 00:52 10,8 C 8,9 C 95 % 1022,5 hPa 0,0 l/m 0 min 0 min 0,0 UV-I 0 W/m 0,0 km/h (0 Bft)
06.10.2013 00:54 10,8 C 8,9 C 95 % 1022,5 hPa 0,0 l/m 0 min 0 min 0,0 UV-I 0 W/m 0,0 km/h (0 Bft)
06.10.2013 00:56 10,8 C 8,9 C 96 % 1022,5 hPa 0,0 l/m 0 min 0 min 0,0 UV-I 0 W/m 0,0 km/h (0 Bft)
06.10.2013 00:58 10,8 C 8,9 C 96 % 1022,5 hPa 0,0 l/m 0 min 0 min 0,0 UV-I 0 W/m 0,0 km/h (0 Bft)
06.10.2013 01:00 10,8 C 8,9 C 96 % 1022,5 hPa 0,0 l/m 0 min 0 min 0,0 UV-I 0 W/m 0,0 km/h (0 Bft)
06.10.2013 01:02 10,7 C 8,9 C 96 % 1022,4 hPa 0,0 l/m 0 min 0 min 0,0 UV-I 0 W/m 0,0 km/h (0 Bft)
06.10.2013 01:06 10,7 C 8,9 C 96 % 1022,4 hPa 0,0 l/m 0 min 0 min 0,0 UV-I 0 W/m 0,0 km/h (0 Bft)
06.10.2013 01:08 10,7 C 8,9 C 96 % 1022,4 hPa 0,0 l/m 0 min 0 min 0,0 UV-I 0 W/m 0,0 km/h (0 Bft)
06.10.2013 01:10 10,7 C 9,4 C 96 % 1022,3 hPa 0,0 l/m 0 min 0 min 0,0 UV-I 0 W/m 0,0 km/h (0 Bft)
06.10.2013 01:12 10,8 C 9,4 C 96 % 1022,3 hPa 0,0 l/m 0 min 0 min 0,0 UV-I 0 W/m 0,0 km/h (0 Bft)
06.10.2013 01:14 10,8 C 9,4 C 96 % 1022,3 hPa 0,0 l/m 0 min 0 min 0,0 UV-I 0 W/m 0,0 km/h (0 Bft)
06.10.2013 01:16 10,8 C 9,4 C 96 % 1022,3 hPa 0,0 l/m 0 min 0 min 0,0 UV-I 0 W/m 0,0 km/h (0 Bft)
06.10.2013 01:18 10,9 C 9,4 C 96 % 1022,4 hPa 0,0 l/m 0 min 0 min 0,0 UV-I 0 W/m 0,0 km/h (0 Bft)
06.10.2013 01:20 10,9 C 9,4 C 96 % 1022,4 hPa 0,0 l/m 0 min 0 min 0,0 UV-I 0 W/m 0,0 km/h (0 Bft)
06.10.2013 01:22 11,0 C 10,0 C 96 % 1022,4 hPa 0,0 l/m 0 min 0 min 0,0 UV-I 0 W/m 0,0 km/h (0 Bft)
06.10.2013 01:24 11,0 C 10,0 C 96 % 1022,4 hPa 0,0 l/m 0 min 0 min 0,0 UV-I 0 W/m 0,0 km/h (0 Bft)
06.10.2013 01:26 11,1 C 10,0 C 97 % 1022,4 hPa 0,0 l/m 0 min 0 min 0,0 UV-I 0 W/m 0,0 km/h (0 Bft)
06.10.2013 01:28 11,1 C 10,0 C 97 % 1022,4 hPa 0,0 l/m 0 min 0 min 0,0 UV-I 0 W/m 0,0 km/h (0 Bft)
06.10.2013 01:30 11,1 C 10,0 C 97 % 1022,4 hPa 0,0 l/m 0 min 0 min 0,0 UV-I 0 W/m 0,0 km/h (0 Bft)
06.10.2013 01:32 11,2 C 10,0 C 97 % 1022,4 hPa 0,0 l/m 0 min 0 min 0,0 UV-I 0 W/m 0,0 km/h (0 Bft)
06.10.2013 01:34 11,2 C 10,0 C 97 % 1022,5 hPa 0,0 l/m 0 min 0 min 0,0 UV-I 0 W/m 0,0 km/h (0 Bft)
06.10.2013 01:36 11,2 C 10,0 C 97 % 1022,4 hPa 0,0 l/m 0 min 0 min 0,0 UV-I 0 W/m 0,0 km/h (0 Bft)
06.10.2013 01:38 11,2 C 10,0 C 97 % 1022,5 hPa 0,0 l/m 0 min 0 min 0,0 UV-I 0 W/m 0,0 km/h (0 Bft)
06.10.2013 01:40 11,3 C 10,0 C 97 % 1022,5 hPa 0,0 l/m 0 min 0 min 0,0 UV-I 0 W/m 0,0 km/h (0 Bft)
06.10.2013 01:42 11,3 C 10,0 C 97 % 1022,5 hPa 0,0 l/m 0 min 0 min 0,0 UV-I 0 W/m 0,0 km/h (0 Bft)
06.10.2013 01:44 11,3 C 10,6 C 97 % 1022,6 hPa 0,0 l/m 0 min 0 min 0,0 UV-I 0 W/m 0,0 km/h (0 Bft)
06.10.2013 01:46 11,3 C 10,6 C 97 % 1022,6 hPa 0,0 l/m 0 min 0 min 0,0 UV-I 0 W/m 0,0 km/h (0 Bft)
06.10.2013 01:48 11,4 C 10,6 C 97 % 1022,6 hPa 0,0 l/m 0 min 0 min 0,0 UV-I 0 W/m 0,0 km/h (0 Bft)
06.10.2013 01:50 11,4 C 10,6 C 97 % 1022,5 hPa 0,0 l/m 0 min 0 min 0,0 UV-I 0 W/m 0,0 km/h (0 Bft)
06.10.2013 01:52 11,4 C 10,6 C 97 % 1022,6 hPa 0,0 l/m 0 min 0 min 0,0 UV-I 0 W/m 0,0 km/h (0 Bft)
06.10.2013 01:54 11,4 C 10,6 C 97 % 1022,6 hPa 0,0 l/m 0 min 0 min 0,0 UV-I 0 W/m 0,0 km/h (0 Bft)
06.10.2013 01:56 11,5 C 10,6 C 97 % 1022,6 hPa 0,0 l/m 0 min 0 min 0,0 UV-I 0 W/m 0,0 km/h (0 Bft)
06.10.2013 01:58 11,5 C 10,6 C 97 % 1022,6 hPa 0,0 l/m 0 min 0 min 0,0 UV-I 0 W/m 0,0 km/h (0 Bft)
06.10.2013 02:00 11,6 C 10,6 C 97 % 1022,6 hPa 0,0 l/m 0 min 0 min 0,0 UV-I 0 W/m 0,0 km/h (0 Bft)
06.10.2013 02:02 11,6 C 10,6 C 97 % 1022,6 hPa 0,0 l/m 0 min 0 min 0,0 UV-I 0 W/m 0,0 km/h (0 Bft)
06.10.2013 02:06 11,6 C 10,6 C 97 % 1022,7 hPa 0,0 l/m 0 min 0 min 0,0 UV-I 0 W/m 0,0 km/h (0 Bft)
06.10.2013 02:08 11,7 C 10,6 C 97 % 1022,7 hPa 0,0 l/m 0 min 0 min 0,0 UV-I 0 W/m 0,0 km/h (0 Bft)
06.10.2013 02:10 11,7 C 10,6 C 97 % 1022,6 hPa 0,0 l/m 0 min 0 min 0,0 UV-I 0 W/m 0,0 km/h (0 Bft)
06.10.2013 02:12 11,7 C 10,6 C 97 % 1022,7 hPa 0,0 l/m 0 min 0 min 0,0 UV-I 0 W/m 0,0 km/h (0 Bft)
06.10.2013 02:14 11,7 C 10,6 C 97 % 1022,7 hPa 0,0 l/m 0 min 0 min 0,0 UV-I 0 W/m 0,0 km/h (0 Bft)
06.10.2013 02:16 11,7 C 10,6 C 97 % 1022,7 hPa 0,0 l/m 0 min 0 min 0,0 UV-I 0 W/m 0,0 km/h (0 Bft)
06.10.2013 02:18 11,8 C 10,6 C 97 % 1022,7 hPa 0,0 l/m 0 min 0 min 0,0 UV-I 0 W/m 0,0 km/h (0 Bft)
06.10.2013 02:20 11,8 C 10,6 C 97 % 1022,8 hPa 0,0 l/m 0 min 0 min 0,0 UV-I 0 W/m 0,0 km/h (0 Bft)
06.10.2013 02:22 11,8 C 10,6 C 97 % 1022,8 hPa 0,0 l/m 0 min 0 min 0,0 UV-I 0 W/m 0,0 km/h (0 Bft)
06.10.2013 02:24 11,8 C 10,6 C 97 % 1022,7 hPa 0,0 l/m 0 min 0 min 0,0 UV-I 0 W/m 0,0 km/h (0 Bft)
06.10.2013 02:26 11,8 C 11,1 C 97 % 1022,7 hPa 0,0 l/m 0 min 0 min 0,0 UV-I 0 W/m 0,0 km/h (0 Bft)
06.10.2013 02:28 11,9 C 11,1 C 97 % 1022,7 hPa 0,0 l/m 0 min 0 min 0,0 UV-I 0 W/m 0,0 km/h (0 Bft)
06.10.2013 02:30 11,9 C 11,1 C 97 % 1022,7 hPa 0,0 l/m 0 min 0 min 0,0 UV-I 0 W/m 0,0 km/h (0 Bft)
06.10.2013 02:32 11,9 C 11,1 C 97 % 1022,7 hPa 0,0 l/m 0 min 0 min 0,0 UV-I 0 W/m 0,0 km/h (0 Bft)
06.10.2013 02:34 11,9 C 11,1 C 97 % 1022,8 hPa 0,0 l/m 0 min 0 min 0,0 UV-I 0 W/m 0,0 km/h (0 Bft)
06.10.2013 02:36 11,9 C 11,1 C 97 % 1022,7 hPa 0,0 l/m 0 min 0 min 0,0 UV-I 0 W/m 0,0 km/h (0 Bft)
06.10.2013 02:38 11,9 C 11,1 C 97 % 1022,7 hPa 0,0 l/m 0 min 0 min 0,0 UV-I 0 W/m 0,0 km/h (0 Bft)
06.10.2013 02:40 11,9 C 11,1 C 97 % 1022,7 hPa 0,0 l/m 0 min 0 min 0,0 UV-I 0 W/m 0,0 km/h (0 Bft)
06.10.2013 02:42 11,9 C 11,1 C 97 % 1022,7 hPa 0,0 l/m 0 min 0 min 0,0 UV-I 0 W/m 0,0 km/h (0 Bft)
06.10.2013 02:44 11,9 C 11,1 C 97 % 1022,7 hPa 0,0 l/m 0 min 0 min 0,0 UV-I 0 W/m 0,0 km/h (0 Bft)
06.10.2013 02:46 11,9 C 11,1 C 97 % 1022,7 hPa 0,0 l/m 0 min 0 min 0,0 UV-I 0 W/m 0,0 km/h (0 Bft)
06.10.2013 02:48 11,9 C 11,1 C 97 % 1022,7 hPa 0,0 l/m 0 min 0 min 0,0 UV-I 0 W/m 0,0 km/h (0 Bft)
06.10.2013 02:50 12,0 C 11,1 C 97 % 1022,8 hPa 0,0 l/m 0 min 0 min 0,0 UV-I 0 W/m 0,0 km/h (0 Bft)
06.10.2013 02:52 12,0 C 11,1 C 97 % 1022,8 hPa 0,0 l/m 0 min 0 min 0,0 UV-I 0 W/m 0,0 km/h (0 Bft)
06.10.2013 02:54 12,0 C 11,1 C 97 % 1022,7 hPa 0,0 l/m 0 min 0 min 0,0 UV-I 0 W/m 0,0 km/h (0 Bft)
06.10.2013 02:56 12,0 C 11,1 C 97 % 1022,7 hPa 0,0 l/m 0 min 0 min 0,0 UV-I 0 W/m 0,0 km/h (0 Bft)
06.10.2013 02:58 12,0 C 11,1 C 97 % 1022,7 hPa 0,0 l/m 0 min 0 min 0,0 UV-I 0 W/m 0,0 km/h (0 Bft)
06.10.2013 03:00 12,0 C 11,1 C 97 % 1022,7 hPa 0,0 l/m 0 min 0 min 0,0 UV-I 0 W/m 0,0 km/h (0 Bft)
06.10.2013 03:02 12,0 C 11,1 C 97 % 1022,8 hPa 0,0 l/m 0 min 0 min 0,0 UV-I 0 W/m 0,0 km/h (0 Bft)
06.10.2013 03:06 12,0 C 11,1 C 97 % 1022,7 hPa 0,0 l/m 0 min 0 min 0,0 UV-I 0 W/m 0,0 km/h (0 Bft)
06.10.2013 03:08 12,0 C 11,1 C 97 % 1022,9 hPa 0,0 l/m 0 min 0 min 0,0 UV-I 0 W/m 0,0 km/h (0 Bft)
06.10.2013 03:10 12,0 C 11,1 C 97 % 1022,8 hPa 0,0 l/m 0 min 0 min 0,0 UV-I 0 W/m 0,0 km/h (0 Bft)
06.10.2013 03:12 12,0 C 11,1 C 97 % 1022,8 hPa 0,0 l/m 0 min 0 min 0,0 UV-I 0 W/m 0,0 km/h (0 Bft)
06.10.2013 03:14 12,0 C 11,1 C 97 % 1022,8 hPa 0,0 l/m 0 min 0 min 0,0 UV-I 0 W/m 0,0 km/h (0 Bft)
06.10.2013 03:16 12,1 C 11,1 C 97 % 1022,8 hPa 0,0 l/m 0 min 0 min 0,0 UV-I 0 W/m 0,0 km/h (0 Bft)
06.10.2013 03:18 12,1 C 11,1 C 97 % 1022,8 hPa 0,0 l/m 0 min 0 min 0,0 UV-I 0 W/m 0,0 km/h (0 Bft)
06.10.2013 03:20 12,1 C 11,1 C 97 % 1022,9 hPa 0,0 l/m 0 min 0 min 0,0 UV-I 0 W/m 0,0 km/h (0 Bft)
06.10.2013 03:22 12,1 C 11,1 C 97 % 1022,8 hPa 0,0 l/m 0 min 0 min 0,0 UV-I 0 W/m 0,0 km/h (0 Bft)
06.10.2013 03:24 12,1 C 11,1 C 97 % 1022,8 hPa 0,0 l/m 0 min 0 min 0,0 UV-I 0 W/m 0,0 km/h (0 Bft)
06.10.2013 03:26 12,1 C 11,1 C 97 % 1022,9 hPa 0,0 l/m 0 min 0 min 0,0 UV-I 0 W/m 0,0 km/h (0 Bft)
06.10.2013 03:28 12,1 C 11,1 C 97 % 1022,9 hPa 0,0 l/m 0 min 0 min 0,0 UV-I 0 W/m 0,0 km/h (0 Bft)
06.10.2013 03:30 12,1 C 11,1 C 97 % 1022,9 hPa 0,0 l/m 0 min 0 min 0,0 UV-I 0 W/m 0,0 km/h (0 Bft)
06.10.2013 03:32 12,1 C 11,1 C 97 % 1022,8 hPa 0,0 l/m 0 min 0 min 0,0 UV-I 0 W/m 0,0 km/h (0 Bft)
06.10.2013 03:34 12,1 C 11,1 C 97 % 1022,9 hPa 0,0 l/m 0 min 0 min 0,0 UV-I 0 W/m 0,0 km/h (0 Bft)
06.10.2013 03:36 12,1 C 11,1 C 97 % 1022,9 hPa 0,0 l/m 0 min 0 min 0,0 UV-I 0 W/m 0,0 km/h (0 Bft)
06.10.2013 03:38 12,1 C 11,1 C 97 % 1022,9 hPa 0,0 l/m 0 min 0 min 0,0 UV-I 0 W/m 0,0 km/h (0 Bft)
06.10.2013 03:40 12,1 C 11,1 C 97 % 1022,8 hPa 0,0 l/m 0 min 0 min 0,0 UV-I 0 W/m 0,0 km/h (0 Bft)
06.10.2013 03:42 12,1 C 11,1 C 97 % 1022,9 hPa 0,0 l/m 0 min 0 min 0,0 UV-I 0 W/m 0,0 km/h (0 Bft)
06.10.2013 03:44 12,1 C 11,1 C 97 % 1022,8 hPa 0,0 l/m 0 min 0 min 0,0 UV-I 0 W/m 0,0 km/h (0 Bft)
06.10.2013 03:46 12,1 C 11,1 C 97 % 1022,8 hPa 0,0 l/m 0 min 0 min 0,0 UV-I 0 W/m 0,0 km/h (0 Bft)
06.10.2013 03:48 12,1 C 11,1 C 97 % 1022,8 hPa 0,0 l/m 0 min 0 min 0,0 UV-I 0 W/m 0,0 km/h (0 Bft)
06.10.2013 03:50 12,1 C 11,1 C 97 % 1022,8 hPa 0,0 l/m 0 min 0 min 0,0 UV-I 0 W/m 0,0 km/h (0 Bft)
06.10.2013 03:52 12,1 C 11,1 C 97 % 1022,8 hPa 0,0 l/m 0 min 0 min 0,0 UV-I 0 W/m 0,0 km/h (0 Bft)
06.10.2013 03:54 12,1 C 11,1 C 97 % 1022,8 hPa 0,0 l/m 0 min 0 min 0,0 UV-I 0 W/m 0,0 km/h (0 Bft)
06.10.2013 03:56 12,1 C 11,1 C 97 % 1022,8 hPa 0,0 l/m 0 min 0 min 0,0 UV-I 0 W/m 0,0 km/h (0 Bft)
06.10.2013 03:58 12,1 C 11,1 C 97 % 1022,8 hPa 0,0 l/m 0 min 0 min 0,0 UV-I 0 W/m 0,0 km/h (0 Bft)
06.10.2013 04:00 12,1 C 11,1 C 97 % 1022,8 hPa 0,0 l/m 0 min 0 min 0,0 UV-I 0 W/m 0,0 km/h (0 Bft)
06.10.2013 04:02 12,1 C 11,1 C 97 % 1022,9 hPa 0,0 l/m 0 min 0 min 0,0 UV-I 0 W/m 0,0 km/h (0 Bft)
06.10.2013 04:06 12,1 C 11,1 C 97 % 1023,0 hPa 0,0 l/m 0 min 0 min 0,0 UV-I 0 W/m 0,0 km/h (0 Bft)
06.10.2013 04:08 12,1 C 11,1 C 97 % 1022,9 hPa 0,0 l/m 0 min 0 min 0,0 UV-I 0 W/m 0,0 km/h (0 Bft)
06.10.2013 04:10 12,1 C 11,1 C 97 % 1022,9 hPa 0,0 l/m 0 min 0 min 0,0 UV-I 0 W/m 0,0 km/h (0 Bft)
06.10.2013 04:12 12,1 C 11,1 C 97 % 1022,9 hPa 0,0 l/m 0 min 0 min 0,0 UV-I 0 W/m 0,0 km/h (0 Bft)
06.10.2013 04:14 12,1 C 11,1 C 97 % 1022,9 hPa 0,0 l/m 0 min 0 min 0,0 UV-I 0 W/m 0,0 km/h (0 Bft)
06.10.2013 04:16 12,1 C 11,1 C 97 % 1022,9 hPa 0,0 l/m 0 min 0 min 0,0 UV-I 0 W/m 0,0 km/h (0 Bft)
06.10.2013 04:18 12,1 C 11,1 C 97 % 1022,9 hPa 0,0 l/m 0 min 0 min 0,0 UV-I 0 W/m 0,0 km/h (0 Bft)
06.10.2013 04:20 12,1 C 11,1 C 97 % 1022,8 hPa 0,0 l/m 0 min 0 min 0,0 UV-I 0 W/m 0,0 km/h (0 Bft)
06.10.2013 04:22 12,1 C 11,1 C 97 % 1022,9 hPa 0,0 l/m 0 min 0 min 0,0 UV-I 0 W/m 0,0 km/h (0 Bft)
06.10.2013 04:24 12,1 C 11,1 C 97 % 1022,8 hPa 0,0 l/m 0 min 0 min 0,0 UV-I 0 W/m 0,0 km/h (0 Bft)
06.10.2013 04:26 12,1 C 11,1 C 97 % 1022,9 hPa 0,0 l/m 0 min 0 min 0,0 UV-I 0 W/m 0,0 km/h (0 Bft)
06.10.2013 04:28 12,1 C 10,6 C 97 % 1022,9 hPa 0,0 l/m 0 min 0 min 0,0 UV-I 0 W/m 0,0 km/h (0 Bft)
06.10.2013 04:30 12,0 C 10,6 C 97 % 1022,9 hPa 0,0 l/m 0 min 0 min 0,0 UV-I 0 W/m 0,0 km/h (0 Bft)
06.10.2013 04:32 12,0 C 10,6 C 97 % 1022,9 hPa 0,0 l/m 0 min 0 min 0,0 UV-I 0 W/m 0,0 km/h (0 Bft)
06.10.2013 04:34 11,9 C 10,6 C 97 % 1022,9 hPa 0,0 l/m 0 min 0 min 0,0 UV-I 0 W/m 0,0 km/h (0 Bft)
06.10.2013 04:36 11,9 C 10,6 C 97 % 1022,9 hPa 0,0 l/m 0 min 0 min 0,0 UV-I 0 W/m 0,0 km/h (0 Bft)
06.10.2013 04:38 11,9 C 10,6 C 97 % 1022,9 hPa 0,0 l/m 0 min 0 min 0,0 UV-I 0 W/m 0,0 km/h (0 Bft)
06.10.2013 04:40 11,8 C 10,6 C 97 % 1022,9 hPa 0,0 l/m 0 min 0 min 0,0 UV-I 0 W/m 0,0 km/h (0 Bft)
06.10.2013 04:42 11,8 C 10,6 C 97 % 1023,0 hPa 0,0 l/m 0 min 0 min 0,0 UV-I 0 W/m 0,0 km/h (0 Bft)
06.10.2013 04:44 11,9 C 10,6 C 97 % 1023,0 hPa 0,0 l/m 0 min 0 min 0,0 UV-I 0 W/m 0,0 km/h (0 Bft)
06.10.2013 04:46 11,8 C 10,6 C 97 % 1023,0 hPa 0,0 l/m 0 min 0 min 0,0 UV-I 0 W/m 0,0 km/h (0 Bft)
06.10.2013 04:48 11,8 C 10,6 C 97 % 1023,1 hPa 0,0 l/m 0 min 0 min 0,0 UV-I 0 W/m 0,0 km/h (0 Bft)
06.10.2013 04:50 11,8 C 10,6 C 97 % 1023,1 hPa 0,0 l/m 0 min 0 min 0,0 UV-I 0 W/m 0,0 km/h (0 Bft)
06.10.2013 04:52 11,8 C 10,6 C 97 % 1023,1 hPa 0,0 l/m 0 min 0 min 0,0 UV-I 0 W/m 0,0 km/h (0 Bft)
06.10.2013 04:54 11,8 C 10,6 C 97 % 1023,2 hPa 0,0 l/m 0 min 0 min 0,0 UV-I 0 W/m 0,0 km/h (0 Bft)
06.10.2013 04:56 11,8 C 10,6 C 97 % 1023,2 hPa 0,0 l/m 0 min 0 min 0,0 UV-I 0 W/m 0,0 km/h (0 Bft)
06.10.2013 04:58 11,7 C 10,6 C 97 % 1023,3 hPa 0,0 l/m 0 min 0 min 0,0 UV-I 0 W/m 0,0 km/h (0 Bft)
06.10.2013 05:00 11,7 C 10,6 C 97 % 1023,3 hPa 0,0 l/m 0 min 0 min 0,0 UV-I 0 W/m 0,0 km/h (0 Bft)
06.10.2013 05:02 11,7 C 10,0 C 97 % 1023,3 hPa 0,0 l/m 0 min 0 min 0,0 UV-I 0 W/m 0,0 km/h (0 Bft)
06.10.2013 05:06 11,6 C 10,0 C 97 % 1023,3 hPa 0,0 l/m 0 min 0 min 0,0 UV-I 0 W/m 0,0 km/h (0 Bft)
06.10.2013 05:08 11,6 C 10,0 C 97 % 1023,4 hPa 0,0 l/m 0 min 0 min 0,0 UV-I 0 W/m 0,0 km/h (0 Bft)
06.10.2013 05:10 11,5 C 10,0 C 97 % 1023,4 hPa 0,0 l/m 0 min 0 min 0,0 UV-I 0 W/m 0,0 km/h (0 Bft)
06.10.2013 05:12 11,5 C 10,0 C 97 % 1023,4 hPa 0,0 l/m 0 min 0 min 0,0 UV-I 0 W/m 0,0 km/h (0 Bft)
06.10.2013 05:14 11,5 C 10,0 C 97 % 1023,4 hPa 0,0 l/m 0 min 0 min 0,0 UV-I 0 W/m 0,0 km/h (0 Bft)
06.10.2013 05:16 11,4 C 10,0 C 97 % 1023,5 hPa 0,0 l/m 0 min 0 min 0,0 UV-I 0 W/m 0,0 km/h (0 Bft)
06.10.2013 05:18 11,4 C 10,0 C 97 % 1023,5 hPa 0,0 l/m 0 min 0 min 0,0 UV-I 0 W/m 0,0 km/h (0 Bft)
06.10.2013 05:20 11,4 C 10,0 C 97 % 1023,5 hPa 0,0 l/m 0 min 0 min 0,0 UV-I 0 W/m 0,0 km/h (0 Bft)
06.10.2013 05:22 11,4 C 10,0 C 97 % 1023,5 hPa 0,0 l/m 0 min 0 min 0,0 UV-I 0 W/m 0,0 km/h (0 Bft)
06.10.2013 05:24 11,4 C 10,0 C 97 % 1023,5 hPa 0,0 l/m 0 min 0 min 0,0 UV-I 0 W/m 0,0 km/h (0 Bft)
06.10.2013 05:26 11,5 C 10,0 C 97 % 1023,5 hPa 0,0 l/m 0 min 0 min 0,0 UV-I 0 W/m 0,0 km/h (0 Bft)
06.10.2013 05:28 11,5 C 10,0 C 97 % 1023,5 hPa 0,0 l/m 0 min 0 min 0,0 UV-I 0 W/m 0,0 km/h (0 Bft)
06.10.2013 05:30 11,5 C 10,0 C 97 % 1023,5 hPa 0,0 l/m 0 min 0 min 0,0 UV-I 0 W/m 0,0 km/h (0 Bft)
06.10.2013 05:32 11,5 C 10,0 C 98 % 1023,6 hPa 0,0 l/m 0 min 0 min 0,0 UV-I 0 W/m 0,0 km/h (0 Bft)
06.10.2013 05:34 11,5 C 10,0 C 98 % 1023,5 hPa 0,0 l/m 0 min 0 min 0,0 UV-I 0 W/m 0,0 km/h (0 Bft)
06.10.2013 05:36 11,5 C 10,0 C 98 % 1023,5 hPa 0,0 l/m 0 min 0 min 0,0 UV-I 0 W/m 0,0 km/h (0 Bft)
06.10.2013 05:38 11,5 C 10,0 C 98 % 1023,5 hPa 0,0 l/m 0 min 0 min 0,0 UV-I 0 W/m 0,0 km/h (0 Bft)
06.10.2013 05:40 11,4 C 10,0 C 98 % 1023,6 hPa 0,0 l/m 0 min 0 min 0,0 UV-I 0 W/m 0,0 km/h (0 Bft)
06.10.2013 05:42 11,4 C 10,0 C 98 % 1023,6 hPa 0,0 l/m 0 min 0 min 0,0 UV-I 0 W/m 0,0 km/h (0 Bft)
06.10.2013 05:44 11,4 C 10,0 C 98 % 1023,6 hPa 0,0 l/m 0 min 0 min 0,0 UV-I 0 W/m 0,0 km/h (0 Bft)
06.10.2013 05:46 11,4 C 10,0 C 98 % 1023,6 hPa 0,0 l/m 0 min 0 min 0,0 UV-I 0 W/m 0,0 km/h (0 Bft)
06.10.2013 05:48 11,4 C 10,0 C 98 % 1023,6 hPa 0,0 l/m 0 min 0 min 0,0 UV-I 0 W/m 0,0 km/h (0 Bft)
06.10.2013 05:50 11,4 C 10,0 C 98 % 1023,7 hPa 0,0 l/m 0 min 0 min 0,0 UV-I 0 W/m 0,0 km/h (0 Bft)
06.10.2013 05:52 11,3 C 10,0 C 98 % 1023,6 hPa 0,0 l/m 0 min 0 min 0,0 UV-I 0 W/m 0,0 km/h (0 Bft)
06.10.2013 05:54 11,3 C 10,0 C 98 % 1023,7 hPa 0,0 l/m 0 min 0 min 0,0 UV-I 0 W/m 0,0 km/h (0 Bft)
06.10.2013 05:56 11,3 C 10,0 C 98 % 1023,6 hPa 0,0 l/m 0 min 0 min 0,0 UV-I 0 W/m 0,0 km/h (0 Bft)
06.10.2013 05:58 11,3 C 10,0 C 98 % 1023,7 hPa 0,0 l/m 0 min 0 min 0,0 UV-I 0 W/m 0,0 km/h (0 Bft)
06.10.2013 06:00 11,3 C 10,0 C 98 % 1023,8 hPa 0,0 l/m 0 min 0 min 0,0 UV-I 0 W/m 0,0 km/h (0 Bft)
06.10.2013 06:02 11,3 C 10,0 C 98 % 1023,8 hPa 0,0 l/m 0 min 0 min 0,0 UV-I 0 W/m 0,0 km/h (0 Bft)
06.10.2013 06:06 11,2 C 10,0 C 98 % 1023,8 hPa 0,0 l/m 0 min 0 min 0,0 UV-I 0 W/m 0,0 km/h (0 Bft)
06.10.2013 06:08 11,2 C 10,0 C 98 % 1023,8 hPa 0,0 l/m 0 min 0 min 0,0 UV-I 0 W/m 0,0 km/h (0 Bft)
06.10.2013 06:10 11,2 C 10,0 C 98 % 1023,8 hPa 0,0 l/m 0 min 0 min 0,0 UV-I 0 W/m 0,0 km/h (0 Bft)
06.10.2013 06:12 11,2 C 10,0 C 98 % 1023,8 hPa 0,0 l/m 0 min 0 min 0,0 UV-I 0 W/m 0,0 km/h (0 Bft)
06.10.2013 06:14 11,2 C 10,0 C 98 % 1023,9 hPa 0,0 l/m 0 min 0 min 0,0 UV-I 0 W/m 0,0 km/h (0 Bft)
06.10.2013 06:16 11,2 C 10,0 C 98 % 1023,9 hPa 0,0 l/m 0 min 0 min 0,0 UV-I 0 W/m 0,0 km/h (0 Bft)
06.10.2013 06:18 11,3 C 10,0 C 98 % 1023,9 hPa 0,0 l/m 0 min 0 min 0,0 UV-I 0 W/m 0,0 km/h (0 Bft)
06.10.2013 06:20 11,3 C 10,0 C 98 % 1023,9 hPa 0,0 l/m 0 min 0 min 0,0 UV-I 0 W/m 0,0 km/h (0 Bft)
06.10.2013 06:22 11,4 C 10,0 C 98 % 1023,8 hPa 0,0 l/m 0 min 0 min 0,0 UV-I 0 W/m 0,0 km/h (0 Bft)
06.10.2013 06:24 11,4 C 10,0 C 98 % 1023,9 hPa 0,0 l/m 0 min 0 min 0,0 UV-I 0 W/m 0,0 km/h (0 Bft)
06.10.2013 06:26 11,4 C 10,6 C 98 % 1023,9 hPa 0,0 l/m 0 min 0 min 0,0 UV-I 0 W/m 0,0 km/h (0 Bft)
06.10.2013 06:28 11,4 C 10,6 C 98 % 1023,9 hPa 0,0 l/m 0 min 0 min 0,0 UV-I 0 W/m 0,0 km/h (0 Bft)
06.10.2013 06:30 11,4 C 10,6 C 98 % 1024,0 hPa 0,0 l/m 0 min 0 min 0,0 UV-I 0 W/m 0,0 km/h (0 Bft)
06.10.2013 06:32 11,5 C 10,6 C 98 % 1023,9 hPa 0,0 l/m 0 min 0 min 0,0 UV-I 0 W/m 0,0 km/h (0 Bft)
06.10.2013 06:34 11,5 C 10,6 C 98 % 1023,9 hPa 0,0 l/m 0 min 0 min 0,0 UV-I 0 W/m 0,0 km/h (0 Bft)
06.10.2013 06:36 11,5 C 10,6 C 98 % 1023,9 hPa 0,0 l/m 0 min 0 min 0,0 UV-I 0 W/m 0,0 km/h (0 Bft)
06.10.2013 06:38 11,5 C 10,6 C 98 % 1023,9 hPa 0,0 l/m 0 min 0 min 0,0 UV-I 0 W/m 0,0 km/h (0 Bft)
06.10.2013 06:40 11,6 C 10,6 C 98 % 1023,9 hPa 0,0 l/m 0 min 0 min 0,0 UV-I 0 W/m 0,0 km/h (0 Bft)
06.10.2013 06:42 11,6 C 10,6 C 98 % 1023,9 hPa 0,0 l/m 0 min 0 min 0,0 UV-I 0 W/m 0,0 km/h (0 Bft)
06.10.2013 06:44 11,6 C 10,6 C 98 % 1024,0 hPa 0,0 l/m 0 min 0 min 0,0 UV-I 0 W/m 0,0 km/h (0 Bft)
06.10.2013 06:46 11,6 C 10,6 C 98 % 1024,0 hPa 0,0 l/m 0 min 0 min 0,0 UV-I 0 W/m 0,0 km/h (0 Bft)
06.10.2013 06:48 11,6 C 10,6 C 98 % 1024,0 hPa 0,0 l/m 0 min 0 min 0,0 UV-I 0 W/m 0,0 km/h (0 Bft)
06.10.2013 06:50 11,7 C 10,6 C 98 % 1024,0 hPa 0,0 l/m 0 min 0 min 0,0 UV-I 0 W/m 0,0 km/h (0 Bft)
06.10.2013 06:52 11,7 C 10,6 C 98 % 1023,9 hPa 0,0 l/m 0 min 0 min 0,0 UV-I 0 W/m 0,0 km/h (0 Bft)
06.10.2013 06:54 11,7 C 10,6 C 98 % 1023,9 hPa 0,0 l/m 0 min 0 min 0,0 UV-I 0 W/m 0,0 km/h (0 Bft)
06.10.2013 06:56 11,7 C 10,6 C 98 % 1024,0 hPa 0,0 l/m 0 min 0 min 0,0 UV-I 0 W/m 0,0 km/h (0 Bft)
06.10.2013 06:58 11,8 C 10,6 C 98 % 1023,9 hPa 0,0 l/m 0 min 0 min 0,0 UV-I 0 W/m 0,0 km/h (0 Bft)
06.10.2013 07:00 11,8 C 11,1 C 98 % 1024,0 hPa 0,0 l/m 0 min 0 min 0,0 UV-I 0 W/m 0,0 km/h (0 Bft)
06.10.2013 07:02 11,8 C 11,1 C 98 % 1024,0 hPa 0,0 l/m 0 min 0 min 0,0 UV-I 0 W/m 0,0 km/h (0 Bft)
06.10.2013 07:06 11,8 C 11,1 C 98 % 1024,0 hPa 0,0 l/m 0 min 0 min 0,0 UV-I 0 W/m 0,0 km/h (0 Bft)
06.10.2013 07:08 11,8 C 11,1 C 98 % 1024,0 hPa 0,0 l/m 0 min 0 min 0,0 UV-I 0 W/m 0,0 km/h (0 Bft)
06.10.2013 07:10 11,8 C 11,1 C 98 % 1024,0 hPa 0,0 l/m 0 min 0 min 0,0 UV-I 0 W/m 0,0 km/h (0 Bft)
06.10.2013 07:12 11,8 C 11,1 C 98 % 1024,0 hPa 0,0 l/m 0 min 0 min 0,0 UV-I 0 W/m 0,0 km/h (0 Bft)
06.10.2013 07:14 11,8 C 11,1 C 98 % 1024,0 hPa 0,0 l/m 0 min 0 min 0,0 UV-I 0 W/m 0,0 km/h (0 Bft)
06.10.2013 07:16 11,8 C 11,1 C 98 % 1024,0 hPa 0,0 l/m 0 min 0 min 0,0 UV-I 0 W/m 0,0 km/h (0 Bft)
06.10.2013 07:18 11,8 C 11,1 C 98 % 1024,0 hPa 0,0 l/m 0 min 0 min 0,0 UV-I 0 W/m 0,0 km/h (0 Bft)
06.10.2013 07:20 11,8 C 11,1 C 98 % 1024,0 hPa 0,0 l/m 0 min 0 min 0,0 UV-I 0 W/m 0,0 km/h (0 Bft)
06.10.2013 07:22 11,8 C 11,1 C 98 % 1024,1 hPa 0,0 l/m 0 min 0 min 0,0 UV-I 0 W/m 0,0 km/h (0 Bft)
06.10.2013 07:24 11,8 C 11,1 C 98 % 1024,1 hPa 0,0 l/m 0 min 0 min 0,0 UV-I 0 W/m 0,0 km/h (0 Bft)
06.10.2013 07:26 11,8 C 11,1 C 98 % 1024,1 hPa 0,0 l/m 0 min 0 min 0,0 UV-I 0 W/m 0,0 km/h (0 Bft)
06.10.2013 07:28 11,8 C 11,1 C 98 % 1024,2 hPa 0,0 l/m 0 min 0 min 0,0 UV-I 0 W/m 0,0 km/h (0 Bft)
06.10.2013 07:30 11,8 C 11,1 C 98 % 1024,2 hPa 0,0 l/m 0 min 0 min 0,0 UV-I 0 W/m 0,0 km/h (0 Bft)
06.10.2013 07:32 11,8 C 11,1 C 98 % 1024,2 hPa 0,0 l/m 0 min 0 min 0,0 UV-I 0 W/m 0,0 km/h (0 Bft)
06.10.2013 07:34 11,8 C 11,1 C 98 % 1024,3 hPa 0,0 l/m 0 min 0 min 0,0 UV-I 0 W/m 0,0 km/h (0 Bft)
06.10.2013 07:36 11,8 C 11,1 C 98 % 1024,2 hPa 0,0 l/m 0 min 0 min 0,0 UV-I 0 W/m 0,0 km/h (0 Bft)
06.10.2013 07:38 11,8 C 11,1 C 98 % 1024,2 hPa 0,0 l/m 0 min 0 min 0,0 UV-I 0 W/m 0,0 km/h (0 Bft)
06.10.2013 07:40 11,8 C 11,1 C 98 % 1024,3 hPa 0,0 l/m 0 min 0 min 0,0 UV-I 0 W/m 0,0 km/h (0 Bft)
06.10.2013 07:42 11,8 C 11,1 C 98 % 1024,3 hPa 0,0 l/m 0 min 0 min 0,0 UV-I 0 W/m 0,0 km/h (0 Bft)
06.10.2013 07:44 11,7 C 11,1 C 98 % 1024,2 hPa 0,0 l/m 0 min 0 min 0,0 UV-I 0 W/m 0,0 km/h (0 Bft)
06.10.2013 07:46 11,7 C 11,1 C 98 % 1024,3 hPa 0,0 l/m 0 min 0 min 0,0 UV-I 0 W/m 0,0 km/h (0 Bft)
06.10.2013 07:48 11,7 C 11,1 C 99 % 1024,3 hPa 0,0 l/m 0 min 0 min 0,0 UV-I 0 W/m 0,0 km/h (0 Bft)
06.10.2013 07:50 11,7 C 11,1 C 99 % 1024,3 hPa 0,0 l/m 0 min 0 min 0,0 UV-I 0 W/m 0,0 km/h (0 Bft)
06.10.2013 07:52 11,7 C 11,1 C 98 % 1024,3 hPa 0,0 l/m 0 min 0 min 0,0 UV-I 0 W/m 0,0 km/h (0 Bft)
06.10.2013 07:54 11,7 C 10,6 C 99 % 1024,3 hPa 0,0 l/m 0 min 0 min 0,0 UV-I 5 W/m 0,0 km/h (0 Bft)
06.10.2013 07:56 11,7 C 10,6 C 98 % 1024,3 hPa 0,0 l/m 0 min 0 min 0,0 UV-I 5 W/m 0,0 km/h (0 Bft)
06.10.2013 07:58 11,7 C 11,1 C 98 % 1024,3 hPa 0,0 l/m 0 min 0 min 0,0 UV-I 7 W/m 0,0 km/h (0 Bft)
06.10.2013 08:00 11,7 C 11,1 C 98 % 1024,5 hPa 0,0 l/m 0 min 0 min 0,0 UV-I 7 W/m 0,0 km/h (0 Bft)
06.10.2013 08:02 11,6 C 11,1 C 98 % 1024,5 hPa 0,0 l/m 0 min 0 min 0,0 UV-I 7 W/m 0,0 km/h (0 Bft)
06.10.2013 08:06 11,6 C 10,6 C 98 % 1024,4 hPa 0,0 l/m 0 min 0 min 0,0 UV-I 9 W/m 0,0 km/h (0 Bft)
06.10.2013 08:08 11,6 C 10,6 C 98 % 1024,3 hPa 0,0 l/m 0 min 0 min 0,0 UV-I 9 W/m 0,0 km/h (0 Bft)
06.10.2013 08:10 11,6 C 10,6 C 98 % 1024,4 hPa 0,0 l/m 0 min 0 min 0,0 UV-I 11 W/m 0,0 km/h (0 Bft)
06.10.2013 08:12 11,6 C 10,6 C 98 % 1024,5 hPa 0,0 l/m 0 min 0 min 0,0 UV-I 12 W/m 0,0 km/h (0 Bft)
06.10.2013 08:14 11,6 C 10,6 C 98 % 1024,6 hPa 0,0 l/m 0 min 0 min 0,0 UV-I 16 W/m 0,0 km/h (0 Bft)
06.10.2013 08:16 11,6 C 10,6 C 98 % 1024,6 hPa 0,0 l/m 0 min 0 min 0,0 UV-I 14 W/m 0,0 km/h (0 Bft)
06.10.2013 08:18 11,6 C 10,6 C 98 % 1024,7 hPa 0,0 l/m 0 min 0 min 0,0 UV-I 12 W/m 0,0 km/h (0 Bft)
06.10.2013 08:20 11,6 C 10,6 C 98 % 1024,6 hPa 0,0 l/m 0 min 0 min 0,0 UV-I 12 W/m 0,0 km/h (0 Bft)
06.10.2013 08:22 11,6 C 10,6 C 98 % 1024,6 hPa 0,0 l/m 0 min 0 min 0,0 UV-I 12 W/m 0,0 km/h (0 Bft)
06.10.2013 08:24 11,5 C 10,6 C 98 % 1024,7 hPa 0,0 l/m 0 min 0 min 0,0 UV-I 12 W/m 0,0 km/h (0 Bft)
06.10.2013 08:26 11,5 C 10,6 C 99 % 1024,7 hPa 0,0 l/m 0 min 0 min 0,0 UV-I 14 W/m 0,0 km/h (0 Bft)
06.10.2013 08:28 11,4 C 10,6 C 99 % 1024,7 hPa 0,0 l/m 0 min 0 min 0,0 UV-I 14 W/m 0,0 km/h (0 Bft)
06.10.2013 08:30 11,4 C 10,6 C 99 % 1024,7 hPa 0,0 l/m 0 min 0 min 0,0 UV-I 16 W/m 0,0 km/h (0 Bft)
06.10.2013 08:32 11,4 C 10,6 C 99 % 1024,8 hPa 0,0 l/m 0 min 0 min 0,0 UV-I 16 W/m 0,0 km/h (0 Bft)
06.10.2013 08:34 11,4 C 10,6 C 99 % 1024,9 hPa 0,0 l/m 0 min 0 min 0,0 UV-I 16 W/m 0,0 km/h (0 Bft)
06.10.2013 08:36 11,4 C 10,6 C 99 % 1024,8 hPa 0,0 l/m 0 min 0 min 0,0 UV-I 18 W/m 0,0 km/h (0 Bft)
06.10.2013 08:38 11,4 C 10,6 C 99 % 1024,9 hPa 0,0 l/m 0 min 0 min 0,0 UV-I 18 W/m 0,0 km/h (0 Bft)
06.10.2013 08:40 11,4 C 10,6 C 99 % 1024,9 hPa 0,0 l/m 0 min 0 min 0,0 UV-I 21 W/m 0,0 km/h (0 Bft)
06.10.2013 08:42 11,5 C 10,6 C 99 % 1024,9 hPa 0,0 l/m 0 min 0 min 0,0 UV-I 25 W/m 0,0 km/h (0 Bft)
06.10.2013 08:44 11,4 C 10,6 C 99 % 1024,9 hPa 0,0 l/m 0 min 0 min 0,0 UV-I 26 W/m 0,0 km/h (0 Bft)
06.10.2013 08:46 11,4 C 10,6 C 99 % 1024,8 hPa 0,0 l/m 0 min 0 min 0,0 UV-I 32 W/m 0,0 km/h (0 Bft)
06.10.2013 08:48 11,4 C 10,6 C 99 % 1025,0 hPa 0,0 l/m 0 min 0 min 0,0 UV-I 33 W/m 0,0 km/h (0 Bft)
06.10.2013 08:50 11,4 C 10,6 C 98 % 1025,0 hPa 0,0 l/m 0 min 0 min 0,0 UV-I 35 W/m 0,0 km/h (0 Bft)
06.10.2013 08:52 11,4 C 10,6 C 98 % 1025,0 hPa 0,0 l/m 0 min 0 min 0,0 UV-I 35 W/m 0,0 km/h (0 Bft)
06.10.2013 08:54 11,3 C 10,6 C 98 % 1025,0 hPa 0,0 l/m 0 min 0 min 0,0 UV-I 37 W/m 0,0 km/h (0 Bft)
06.10.2013 08:56 11,3 C 10,6 C 98 % 1025,0 hPa 0,0 l/m 0 min 0 min 0,0 UV-I 39 W/m 0,0 km/h (0 Bft)
06.10.2013 08:58 11,3 C 10,6 C 98 % 1025,0 hPa 0,0 l/m 0 min 0 min 0,0 UV-I 44 W/m 0,0 km/h (0 Bft)
06.10.2013 09:00 11,3 C 10,6 C 98 % 1025,0 hPa 0,0 l/m 0 min 0 min 0,0 UV-I 47 W/m 0,0 km/h (0 Bft)
06.10.2013 09:02 11,3 C 10,6 C 98 % 1025,0 hPa 0,0 l/m 0 min 0 min 0,0 UV-I 46 W/m 0,0 km/h (0 Bft)
06.10.2013 09:06 11,4 C 11,1 C 99 % 1025,1 hPa 0,0 l/m 0 min 0 min 0,0 UV-I 49 W/m 0,0 km/h (0 Bft)
06.10.2013 09:08 11,4 C 11,1 C 99 % 1025,1 hPa 0,0 l/m 0 min 0 min 0,0 UV-I 49 W/m 0,0 km/h (0 Bft)
06.10.2013 09:10 11,4 C 11,1 C 99 % 1025,1 hPa 0,0 l/m 0 min 0 min 0,0 UV-I 51 W/m 0,0 km/h (0 Bft)
06.10.2013 09:12 11,4 C 11,1 C 99 % 1025,1 hPa 0,0 l/m 0 min 0 min 0,0 UV-I 51 W/m 0,0 km/h (0 Bft)
06.10.2013 09:14 11,4 C 11,1 C 99 % 1025,2 hPa 0,0 l/m 0 min 0 min 0,0 UV-I 54 W/m 0,0 km/h (0 Bft)
06.10.2013 09:16 11,4 C 11,1 C 99 % 1025,3 hPa 0,0 l/m 0 min 0 min 0,0 UV-I 58 W/m 0,0 km/h (0 Bft)
06.10.2013 09:18 11,4 C 11,1 C 99 % 1025,2 hPa 0,0 l/m 0 min 0 min 0,0 UV-I 60 W/m 0,0 km/h (0 Bft)
06.10.2013 09:20 11,4 C 11,1 C 99 % 1025,3 hPa 0,0 l/m 0 min 0 min 0,0 UV-I 69 W/m 0,0 km/h (0 Bft)
06.10.2013 09:22 11,4 C 11,1 C 99 % 1025,3 hPa 0,0 l/m 0 min 0 min 0,0 UV-I 72 W/m 0,0 km/h (0 Bft)
06.10.2013 09:24 11,4 C 11,1 C 99 % 1025,2 hPa 0,0 l/m 0 min 0 min 0,0 UV-I 70 W/m 0,0 km/h (0 Bft)
06.10.2013 09:26 11,4 C 11,1 C 99 % 1025,2 hPa 0,0 l/m 0 min 0 min 0,0 UV-I 63 W/m 0,0 km/h (0 Bft)
06.10.2013 09:28 11,5 C 11,1 C 99 % 1025,3 hPa 0,0 l/m 0 min 0 min 0,0 UV-I 47 W/m 0,0 km/h (0 Bft)
06.10.2013 09:30 11,5 C 11,1 C 99 % 1025,2 hPa 0,0 l/m 0 min 0 min 0,0 UV-I 58 W/m 0,0 km/h (0 Bft)
06.10.2013 09:32 11,5 C 11,1 C 99 % 1025,2 hPa 0,0 l/m 0 min 0 min 0,0 UV-I 62 W/m 0,0 km/h (0 Bft)
06.10.2013 09:34 11,6 C 11,1 C 99 % 1025,3 hPa 0,0 l/m 0 min 0 min 0,0 UV-I 74 W/m 0,0 km/h (0 Bft)
06.10.2013 09:36 11,6 C 11,7 C 99 % 1025,3 hPa 0,0 l/m 0 min 0 min 0,0 UV-I 77 W/m 0,0 km/h (0 Bft)
06.10.2013 09:38 11,7 C 11,7 C 99 % 1025,3 hPa 0,0 l/m 0 min 0 min 0,0 UV-I 76 W/m 0,0 km/h (0 Bft)
06.10.2013 09:40 11,8 C 11,7 C 99 % 1025,4 hPa 0,0 l/m 0 min 0 min 0,0 UV-I 69 W/m 0,0 km/h (0 Bft)
06.10.2013 09:42 11,8 C 11,7 C 99 % 1025,4 hPa 0,0 l/m 0 min 0 min 0,0 UV-I 77 W/m 0,0 km/h (0 Bft)
06.10.2013 09:44 11,8 C 11,7 C 99 % 1025,4 hPa 0,0 l/m 0 min 0 min 0,0 UV-I 84 W/m 0,0 km/h (0 Bft)
06.10.2013 09:46 11,8 C 11,7 C 99 % 1025,4 hPa 0,0 l/m 0 min 0 min 0,0 UV-I 107 W/m 0,0 km/h (0 Bft)
06.10.2013 09:48 11,8 C 11,7 C 99 % 1025,4 hPa 0,0 l/m 0 min 0 min 0,0 UV-I 127 W/m 0,0 km/h (0 Bft)
06.10.2013 09:50 11,9 C 11,7 C 99 % 1025,3 hPa 0,0 l/m 0 min 0 min 0,0 UV-I 163 W/m 0,0 km/h (0 Bft)
06.10.2013 09:52 11,8 C 12,2 C 99 % 1025,3 hPa 0,0 l/m 2 min 0 min 0,0 UV-I 186 W/m 0,0 km/h (0 Bft)
06.10.2013 09:54 11,9 C 12,2 C 99 % 1025,3 hPa 0,0 l/m 2 min 0 min 0,0 UV-I 176 W/m 0,0 km/h (0 Bft)
06.10.2013 09:56 12,1 C 12,2 C 98 % 1025,3 hPa 0,0 l/m 0 min 0 min 0,0 UV-I 156 W/m 0,0 km/h (0 Bft)
06.10.2013 09:58 12,1 C 12,2 C 99 % 1025,3 hPa 0,0 l/m 0 min 0 min 0,0 UV-I 162 W/m 0,0 km/h (0 Bft)
06.10.2013 10:00 12,2 C 12,2 C 99 % 1025,3 hPa 0,0 l/m 0 min 0 min 0,0 UV-I 165 W/m 0,0 km/h (0 Bft)
06.10.2013 10:02 12,3 C 12,8 C 98 % 1025,3 hPa 0,0 l/m 0 min 0 min 0,0 UV-I 155 W/m 0,0 km/h (0 Bft)
06.10.2013 10:06 12,4 C 12,8 C 98 % 1025,4 hPa 0,0 l/m 0 min 0 min 0,0 UV-I 137 W/m 0,0 km/h (0 Bft)
06.10.2013 10:08 12,4 C 12,2 C 98 % 1025,3 hPa 0,0 l/m 0 min 0 min 0,0 UV-I 118 W/m 0,0 km/h (0 Bft)
06.10.2013 10:10 12,4 C 12,2 C 98 % 1025,3 hPa 0,0 l/m 0 min 0 min 0,0 UV-I 114 W/m 0,0 km/h (0 Bft)
06.10.2013 10:12 12,3 C 12,2 C 98 % 1025,3 hPa 0,0 l/m 0 min 0 min 0,0 UV-I 113 W/m 0,0 km/h (0 Bft)
06.10.2013 10:14 12,3 C 12,2 C 98 % 1025,4 hPa 0,0 l/m 0 min 0 min 0,0 UV-I 109 W/m 0,0 km/h (0 Bft)
06.10.2013 10:16 12,4 C 12,2 C 98 % 1025,4 hPa 0,0 l/m 0 min 0 min 0,0 UV-I 109 W/m 0,0 km/h (0 Bft)
06.10.2013 10:18 12,4 C 12,2 C 98 % 1025,4 hPa 0,0 l/m 0 min 0 min 0,0 UV-I 113 W/m 0,0 km/h (0 Bft)
06.10.2013 10:20 12,5 C 12,2 C 98 % 1025,5 hPa 0,0 l/m 0 min 0 min 0,0 UV-I 97 W/m 0,0 km/h (0 Bft)
06.10.2013 10:22 12,5 C 12,2 C 98 % 1025,5 hPa 0,0 l/m 0 min 0 min 0,0 UV-I 93 W/m 0,0 km/h (0 Bft)
06.10.2013 10:24 12,5 C 12,2 C 97 % 1025,5 hPa 0,0 l/m 0 min 0 min 0,0 UV-I 107 W/m 0,0 km/h (0 Bft)
06.10.2013 10:26 12,6 C 12,2 C 97 % 1025,3 hPa 0,0 l/m 0 min 0 min 0,0 UV-I 111 W/m 0,0 km/h (0 Bft)
06.10.2013 10:28 12,6 C 12,8 C 97 % 1025,4 hPa 0,0 l/m 0 min 0 min 0,0 UV-I 113 W/m 0,0 km/h (0 Bft)
06.10.2013 10:30 12,7 C 12,8 C 97 % 1025,5 hPa 0,0 l/m 0 min 0 min 0,0 UV-I 123 W/m 0,0 km/h (0 Bft)
06.10.2013 10:32 12,7 C 12,8 C 97 % 1025,5 hPa 0,0 l/m 0 min 0 min 0,0 UV-I 135 W/m 0,0 km/h (0 Bft)
06.10.2013 10:34 12,7 C 12,8 C 97 % 1025,5 hPa 0,0 l/m 0 min 0 min 0,0 UV-I 135 W/m 0,0 km/h (0 Bft)
06.10.2013 10:36 12,8 C 12,8 C 96 % 1025,5 hPa 0,0 l/m 0 min 0 min 0,0 UV-I 141 W/m 0,0 km/h (0 Bft)
06.10.2013 10:38 12,9 C 12,8 C 96 % 1025,5 hPa 0,0 l/m 0 min 0 min 0,0 UV-I 155 W/m 0,0 km/h (0 Bft)
06.10.2013 10:40 12,9 C 12,8 C 96 % 1025,5 hPa 0,0 l/m 0 min 0 min 0,0 UV-I 160 W/m 0,0 km/h (0 Bft)
06.10.2013 10:42 13,0 C 12,8 C 96 % 1025,4 hPa 0,0 l/m 0 min 0 min 0,0 UV-I 162 W/m 0,0 km/h (0 Bft)
06.10.2013 10:44 13,1 C 13,3 C 96 % 1025,5 hPa 0,0 l/m 0 min 0 min 0,0 UV-I 162 W/m 0,0 km/h (0 Bft)
06.10.2013 10:46 13,1 C 13,3 C 96 % 1025,5 hPa 0,0 l/m 0 min 0 min 0,0 UV-I 167 W/m 0,0 km/h (0 Bft)
06.10.2013 10:48 13,1 C 13,3 C 95 % 1025,5 hPa 0,0 l/m 0 min 0 min 0,0 UV-I 216 W/m 0,0 km/h (0 Bft)
06.10.2013 10:50 13,2 C 13,3 C 95 % 1025,6 hPa 0,0 l/m 0 min 0 min 0,0 UV-I 185 W/m 0,0 km/h (0 Bft)
06.10.2013 10:52 13,3 C 13,3 C 95 % 1025,6 hPa 0,0 l/m 0 min 0 min 0,0 UV-I 199 W/m 0,0 km/h (0 Bft)
06.10.2013 10:54 13,3 C 13,3 C 95 % 1025,6 hPa 0,0 l/m 0 min 0 min 0,0 UV-I 206 W/m 0,0 km/h (0 Bft)
06.10.2013 10:56 13,3 C 13,3 C 95 % 1025,6 hPa 0,0 l/m 0 min 0 min 0,0 UV-I 211 W/m 0,0 km/h (0 Bft)
06.10.2013 10:58 13,4 C 13,3 C 94 % 1025,5 hPa 0,0 l/m 0 min 0 min 0,0 UV-I 195 W/m 0,0 km/h (0 Bft)
06.10.2013 11:00 13,4 C 13,3 C 94 % 1025,5 hPa 0,0 l/m 0 min 0 min 0,0 UV-I 188 W/m 0,0 km/h (0 Bft)
06.10.2013 11:02 13,5 C 13,3 C 94 % 1025,6 hPa 0,0 l/m 0 min 0 min 0,5 UV-I 199 W/m 0,0 km/h (0 Bft)
06.10.2013 11:06 13,5 C 13,9 C 93 % 1025,6 hPa 0,0 l/m 0 min 0 min 0,6 UV-I 229 W/m 0,0 km/h (0 Bft)
06.10.2013 11:08 13,6 C 13,9 C 93 % 1025,6 hPa 0,0 l/m 0 min 0 min 0,6 UV-I 230 W/m 0,0 km/h (0 Bft)
06.10.2013 11:10 13,7 C 13,9 C 93 % 1025,6 hPa 0,0 l/m 0 min 0 min 0,6 UV-I 227 W/m 0,0 km/h (0 Bft)
06.10.2013 11:12 13,8 C 13,9 C 93 % 1025,6 hPa 0,0 l/m 0 min 0 min 0,5 UV-I 213 W/m 0,0 km/h (0 Bft)
06.10.2013 11:14 13,9 C 13,9 C 92 % 1025,6 hPa 0,0 l/m 0 min 0 min 0,5 UV-I 207 W/m 0,0 km/h (0 Bft)
06.10.2013 11:16 13,9 C 13,9 C 92 % 1025,6 hPa 0,0 l/m 0 min 0 min 0,5 UV-I 202 W/m 0,0 km/h (0 Bft)
06.10.2013 11:18 13,9 C 13,9 C 91 % 1025,6 hPa 0,0 l/m 0 min 0 min 0,5 UV-I 192 W/m 0,0 km/h (0 Bft)
06.10.2013 11:20 13,9 C 13,9 C 91 % 1025,6 hPa 0,0 l/m 0 min 0 min 0,6 UV-I 197 W/m 0,0 km/h (0 Bft)
06.10.2013 11:22 13,9 C 13,9 C 91 % 1025,6 hPa 0,0 l/m 0 min 0 min 0,6 UV-I 209 W/m 0,0 km/h (0 Bft)
06.10.2013 11:24 13,9 C 13,9 C 91 % 1025,6 hPa 0,0 l/m 0 min 0 min 0,7 UV-I 234 W/m 0,0 km/h (0 Bft)
06.10.2013 11:26 13,9 C 13,9 C 91 % 1025,5 hPa 0,0 l/m 0 min 0 min 0,7 UV-I 243 W/m 0,0 km/h (0 Bft)
06.10.2013 11:28 13,8 C 13,9 C 91 % 1025,6 hPa 0,0 l/m 0 min 0 min 0,8 UV-I 262 W/m 0,0 km/h (0 Bft)
06.10.2013 11:30 13,9 C 13,9 C 91 % 1025,6 hPa 0,0 l/m 0 min 0 min 0,7 UV-I 250 W/m 0,0 km/h (0 Bft)
06.10.2013 11:32 14,1 C 13,9 C 91 % 1025,6 hPa 0,0 l/m 0 min 0 min 0,7 UV-I 227 W/m 0,0 km/h (0 Bft)
06.10.2013 11:34 14,2 C 14,4 C 90 % 1025,5 hPa 0,0 l/m 0 min 0 min 0,8 UV-I 239 W/m 0,0 km/h (0 Bft)
06.10.2013 11:36 14,2 C 14,4 C 90 % 1025,6 hPa 0,0 l/m 0 min 0 min 0,8 UV-I 255 W/m 0,0 km/h (0 Bft)
06.10.2013 11:38 14,2 C 13,9 C 90 % 1025,6 hPa 0,0 l/m 0 min 0 min 1,0 UV-I 255 W/m 0,0 km/h (0 Bft)
06.10.2013 11:40 13,9 C 13,9 C 89 % 1025,6 hPa 0,0 l/m 2 min 0 min 0,9 UV-I 272 W/m 0,0 km/h (0 Bft)
06.10.2013 11:42 14,2 C 13,9 C 90 % 1025,6 hPa 0,0 l/m 0 min 0 min 0,8 UV-I 271 W/m 0,0 km/h (0 Bft)
06.10.2013 11:44 14,2 C 14,4 C 90 % 1025,7 hPa 0,0 l/m 2 min 0 min 0,9 UV-I 279 W/m 0,0 km/h (0 Bft)
06.10.2013 11:46 14,2 C 14,4 C 90 % 1025,7 hPa 0,0 l/m 2 min 0 min 1,0 UV-I 383 W/m 0,0 km/h (0 Bft)
06.10.2013 11:48 14,3 C 14,4 C 90 % 1025,7 hPa 0,0 l/m 2 min 0 min 0,9 UV-I 350 W/m 0,0 km/h (0 Bft)
06.10.2013 11:50 14,5 C 15,0 C 89 % 1025,8 hPa 0,0 l/m 0 min 0 min 0,9 UV-I 262 W/m 0,0 km/h (0 Bft)
06.10.2013 11:52 14,5 C 14,4 C 88 % 1025,7 hPa 0,0 l/m 0 min 0 min 0,9 UV-I 255 W/m 0,0 km/h (0 Bft)
06.10.2013 11:54 14,4 C 14,4 C 88 % 1025,7 hPa 0,0 l/m 0 min 0 min 0,9 UV-I 271 W/m 0,0 km/h (0 Bft)
06.10.2013 11:56 14,5 C 14,4 C 88 % 1025,7 hPa 0,0 l/m 2 min 0 min 1,2 UV-I 381 W/m 0,0 km/h (0 Bft)
06.10.2013 11:58 14,7 C 15,0 C 89 % 1025,6 hPa 0,0 l/m 2 min 0 min 1,5 UV-I 306 W/m 0,0 km/h (0 Bft)
06.10.2013 12:00 14,8 C 15,0 C 88 % 1025,6 hPa 0,0 l/m 0 min 0 min 1,0 UV-I 209 W/m 0,0 km/h (0 Bft)
06.10.2013 12:02 14,8 C 14,4 C 87 % 1025,6 hPa 0,0 l/m 0 min 0 min 1,6 UV-I 214 W/m 0,0 km/h (0 Bft)
06.10.2013 12:06 14,9 C 15,0 C 86 % 1025,6 hPa 0,0 l/m 2 min 0 min 1,6 UV-I 492 W/m 0,0 km/h (0 Bft)
06.10.2013 12:08 15,0 C 15,0 C 87 % 1025,7 hPa 0,0 l/m 2 min 0 min 1,3 UV-I 417 W/m 0,0 km/h (0 Bft)
06.10.2013 12:10 15,0 C 15,0 C 86 % 1025,6 hPa 0,0 l/m 2 min 0 min 1,2 UV-I 311 W/m 0,0 km/h (0 Bft)
06.10.2013 12:12 15,1 C 15,0 C 86 % 1025,7 hPa 0,0 l/m 0 min 0 min 1,2 UV-I 279 W/m 0,0 km/h (0 Bft)
06.10.2013 12:14 15,1 C 15,0 C 86 % 1025,7 hPa 0,0 l/m 0 min 0 min 1,3 UV-I 288 W/m 0,0 km/h (0 Bft)
06.10.2013 12:16 15,2 C 15,0 C 86 % 1025,6 hPa 0,0 l/m 2 min 0 min 1,6 UV-I 577 W/m 0,0 km/h (0 Bft)
06.10.2013 12:18 15,3 C 15,0 C 86 % 1025,7 hPa 0,0 l/m 2 min 0 min 1,3 UV-I 642 W/m 0,0 km/h (0 Bft)
06.10.2013 12:20 15,3 C 15,0 C 85 % 1025,7 hPa 0,0 l/m 0 min 0 min 1,2 UV-I 262 W/m 0,0 km/h (0 Bft)
06.10.2013 12:22 15,4 C 15,0 C 85 % 1025,7 hPa 0,0 l/m 2 min 0 min 1,5 UV-I 301 W/m 0,0 km/h (0 Bft)
06.10.2013 12:24 15,4 C 15,0 C 85 % 1025,8 hPa 0,0 l/m 2 min 0 min 1,3 UV-I 353 W/m 0,0 km/h (0 Bft)
06.10.2013 12:26 15,3 C 15,0 C 85 % 1025,7 hPa 0,0 l/m 2 min 0 min 1,3 UV-I 295 W/m 0,0 km/h (0 Bft)
06.10.2013 12:28 15,4 C 15,0 C 85 % 1025,7 hPa 0,0 l/m 0 min 0 min 1,4 UV-I 292 W/m 0,0 km/h (0 Bft)
06.10.2013 12:30 15,6 C 15,0 C 85 % 1025,7 hPa 0,0 l/m 0 min 0 min 1,4 UV-I 292 W/m 0,0 km/h (0 Bft)
06.10.2013 12:32 15,7 C 15,0 C 83 % 1025,7 hPa 0,0 l/m 2 min 0 min 1,3 UV-I 422 W/m 0,0 km/h (0 Bft)
06.10.2013 12:34 15,6 C 15,0 C 82 % 1025,7 hPa 0,0 l/m 2 min 0 min 1,3 UV-I 346 W/m 0,0 km/h (0 Bft)
06.10.2013 12:36 15,6 C 15,0 C 82 % 1025,7 hPa 0,0 l/m 2 min 0 min 1,3 UV-I 336 W/m 0,0 km/h (0 Bft)
06.10.2013 12:38 15,7 C 15,0 C 83 % 1025,7 hPa 0,0 l/m 2 min 0 min 1,3 UV-I 436 W/m 0,0 km/h (0 Bft)
06.10.2013 12:40 15,6 C 15,0 C 81 % 1025,7 hPa 0,0 l/m 0 min 0 min 1,3 UV-I 255 W/m 0,0 km/h (0 Bft)
06.10.2013 12:42 15,4 C 15,0 C 81 % 1025,6 hPa 0,0 l/m 0 min 0 min 1,3 UV-I 255 W/m 0,0 km/h (0 Bft)
06.10.2013 12:44 15,4 C 14,4 C 83 % 1025,7 hPa 0,0 l/m 2 min 0 min 1,3 UV-I 325 W/m 0,0 km/h (0 Bft)
06.10.2013 12:46 15,4 C 15,0 C 83 % 1025,7 hPa 0,0 l/m 2 min 0 min 1,3 UV-I 325 W/m 0,0 km/h (0 Bft)
06.10.2013 12:48 15,4 C 15,0 C 83 % 1025,7 hPa 0,0 l/m 0 min 0 min 1,2 UV-I 260 W/m 0,0 km/h (0 Bft)
06.10.2013 12:50 15,6 C 15,0 C 84 % 1025,7 hPa 0,0 l/m 2 min 0 min 1,3 UV-I 353 W/m 0,0 km/h (0 Bft)
06.10.2013 12:52 15,6 C 15,0 C 83 % 1025,7 hPa 0,0 l/m 2 min 0 min 1,3 UV-I 309 W/m 0,0 km/h (0 Bft)
06.10.2013 12:54 15,6 C 15,0 C 82 % 1025,8 hPa 0,0 l/m 2 min 0 min 1,3 UV-I 357 W/m 0,0 km/h (0 Bft)
06.10.2013 12:56 15,6 C 15,0 C 83 % 1025,8 hPa 0,0 l/m 2 min 0 min 1,3 UV-I 322 W/m 0,0 km/h (0 Bft)
06.10.2013 12:58 15,5 C 15,0 C 82 % 1025,9 hPa 0,0 l/m 0 min 0 min 1,3 UV-I 272 W/m 0,0 km/h (0 Bft)
06.10.2013 13:00 15,6 C 15,0 C 83 % 1025,8 hPa 0,0 l/m 0 min 0 min 1,3 UV-I 244 W/m 0,0 km/h (0 Bft)
06.10.2013 13:02 15,4 C 15,0 C 81 % 1025,8 hPa 0,0 l/m 0 min 0 min 1,2 UV-I 227 W/m 0,0 km/h (0 Bft)
06.10.2013 13:06 15,4 C 15,0 C 82 % 1025,7 hPa 0,0 l/m 2 min 0 min 1,4 UV-I 380 W/m 0,0 km/h (0 Bft)
06.10.2013 13:08 15,6 C 15,0 C 82 % 1025,7 hPa 0,0 l/m 2 min 0 min 1,3 UV-I 353 W/m 0,0 km/h (0 Bft)
06.10.2013 13:10 15,6 C 15,6 C 81 % 1025,8 hPa 0,0 l/m 2 min 0 min 1,3 UV-I 309 W/m 0,0 km/h (0 Bft)
06.10.2013 13:12 15,6 C 15,6 C 80 % 1025,8 hPa 0,0 l/m 0 min 0 min 1,3 UV-I 281 W/m 0,0 km/h (0 Bft)
06.10.2013 13:14 15,7 C 15,6 C 81 % 1025,8 hPa 0,0 l/m 0 min 0 min 1,3 UV-I 272 W/m 0,0 km/h (0 Bft)
06.10.2013 13:16 15,7 C 15,6 C 80 % 1025,8 hPa 0,0 l/m 0 min 0 min 1,3 UV-I 260 W/m 0,0 km/h (0 Bft)
06.10.2013 13:18 15,7 C 15,0 C 79 % 1025,7 hPa 0,0 l/m 2 min 0 min 1,3 UV-I 322 W/m 0,0 km/h (0 Bft)
06.10.2013 13:20 15,5 C 15,0 C 78 % 1025,8 hPa 0,0 l/m 2 min 0 min 1,3 UV-I 309 W/m 0,0 km/h (0 Bft)
06.10.2013 13:22 15,4 C 15,0 C 79 % 1025,6 hPa 0,0 l/m 0 min 0 min 1,3 UV-I 239 W/m 0,0 km/h (0 Bft)
06.10.2013 13:24 15,4 C 15,0 C 79 % 1025,7 hPa 0,0 l/m 0 min 0 min 1,6 UV-I 239 W/m 0,0 km/h (0 Bft)
06.10.2013 13:26 15,6 C 15,0 C 80 % 1025,7 hPa 0,0 l/m 0 min 0 min 1,4 UV-I 271 W/m 0,0 km/h (0 Bft)
06.10.2013 13:28 15,7 C 15,0 C 79 % 1025,7 hPa 0,0 l/m 0 min 0 min 1,4 UV-I 292 W/m 0,0 km/h (0 Bft)
06.10.2013 13:30 15,8 C 15,0 C 80 % 1025,7 hPa 0,0 l/m 0 min 0 min 1,4 UV-I 287 W/m 0,0 km/h (0 Bft)
06.10.2013 13:32 15,9 C 15,0 C 80 % 1025,6 hPa 0,0 l/m 0 min 0 min 1,5 UV-I 287 W/m 0,0 km/h (0 Bft)
06.10.2013 13:34 16,1 C 15,0 C 80 % 1025,6 hPa 0,0 l/m 2 min 0 min 1,5 UV-I 343 W/m 0,0 km/h (0 Bft)
06.10.2013 13:36 16,0 C 15,0 C 79 % 1025,7 hPa 0,0 l/m 0 min 0 min 1,3 UV-I 248 W/m 0,0 km/h (0 Bft)
06.10.2013 13:38 16,0 C 15,0 C 79 % 1025,7 hPa 0,0 l/m 0 min 0 min 1,3 UV-I 274 W/m 0,0 km/h (0 Bft)
06.10.2013 13:40 16,1 C 15,0 C 79 % 1025,7 hPa 0,0 l/m 0 min 0 min 1,2 UV-I 206 W/m 0,0 km/h (0 Bft)
06.10.2013 13:42 16,1 C 15,0 C 78 % 1025,7 hPa 0,0 l/m 0 min 0 min 1,2 UV-I 202 W/m 0,0 km/h (0 Bft)
06.10.2013 13:44 16,0 C 15,0 C 78 % 1025,7 hPa 0,0 l/m 0 min 0 min 1,1 UV-I 176 W/m 0,0 km/h (0 Bft)
06.10.2013 13:46 15,9 C 15,0 C 78 % 1025,7 hPa 0,0 l/m 0 min 0 min 1,2 UV-I 181 W/m 0,0 km/h (0 Bft)
06.10.2013 13:48 15,8 C 15,0 C 77 % 1025,7 hPa 0,0 l/m 0 min 0 min 1,2 UV-I 190 W/m 0,0 km/h (0 Bft)
06.10.2013 13:50 15,7 C 15,0 C 77 % 1025,6 hPa 0,0 l/m 0 min 0 min 1,3 UV-I 188 W/m 0,0 km/h (0 Bft)
06.10.2013 13:52 15,8 C 15,0 C 77 % 1025,6 hPa 0,0 l/m 0 min 0 min 1,3 UV-I 188 W/m 0,0 km/h (0 Bft)
06.10.2013 13:54 15,9 C 15,0 C 77 % 1025,6 hPa 0,0 l/m 0 min 0 min 1,3 UV-I 237 W/m 0,0 km/h (0 Bft)
06.10.2013 13:56 16,0 C 15,0 C 77 % 1025,7 hPa 0,0 l/m 0 min 0 min 1,5 UV-I 253 W/m 0,0 km/h (0 Bft)
06.10.2013 13:58 16,1 C 15,0 C 77 % 1025,7 hPa 0,0 l/m 0 min 0 min 1,1 UV-I 186 W/m 0,0 km/h (0 Bft)
06.10.2013 14:00 16,2 C 15,0 C 78 % 1025,7 hPa 0,0 l/m 0 min 0 min 1,1 UV-I 169 W/m 0,0 km/h (0 Bft)
06.10.2013 14:02 16,1 C 15,0 C 76 % 1025,7 hPa 0,0 l/m 0 min 0 min 1,1 UV-I 162 W/m 0,0 km/h (0 Bft)
06.10.2013 14:06 15,7 C 14,4 C 74 % 1025,6 hPa 0,0 l/m 0 min 0 min 1,2 UV-I 186 W/m 0,0 km/h (0 Bft)
06.10.2013 14:08 15,6 C 14,4 C 75 % 1025,6 hPa 0,0 l/m 0 min 0 min 1,3 UV-I 214 W/m 0,0 km/h (0 Bft)
06.10.2013 14:10 15,6 C 15,0 C 76 % 1025,5 hPa 0,0 l/m 0 min 0 min 1,8 UV-I 229 W/m 0,0 km/h (0 Bft)
06.10.2013 14:12 15,8 C 15,0 C 76 % 1025,5 hPa 0,0 l/m 2 min 0 min 1,3 UV-I 519 W/m 0,0 km/h (0 Bft)
06.10.2013 14:14 16,0 C 15,0 C 77 % 1025,4 hPa 0,0 l/m 2 min 0 min 1,4 UV-I 436 W/m 0,0 km/h (0 Bft)
06.10.2013 14:16 16,2 C 15,0 C 75 % 1025,5 hPa 0,0 l/m 2 min 0 min 1,8 UV-I 541 W/m 0,0 km/h (0 Bft)
06.10.2013 14:18 16,3 C 15,0 C 75 % 1025,4 hPa 0,0 l/m 2 min 0 min 1,3 UV-I 541 W/m 0,0 km/h (0 Bft)
06.10.2013 14:20 16,4 C 15,0 C 75 % 1025,4 hPa 0,0 l/m 0 min 0 min 1,3 UV-I 218 W/m 0,0 km/h (0 Bft)
06.10.2013 14:22 16,3 C 15,0 C 75 % 1025,5 hPa 0,0 l/m 0 min 0 min 1,2 UV-I 232 W/m 0,0 km/h (0 Bft)
06.10.2013 14:24 16,4 C 15,6 C 76 % 1025,5 hPa 0,0 l/m 0 min 0 min 1,2 UV-I 232 W/m 0,0 km/h (0 Bft)
06.10.2013 14:26 16,4 C 15,6 C 76 % 1025,5 hPa 0,0 l/m 0 min 0 min 1,1 UV-I 181 W/m 0,0 km/h (0 Bft)
06.10.2013 14:28 16,4 C 15,6 C 75 % 1025,5 hPa 0,0 l/m 0 min 0 min 1,1 UV-I 171 W/m 0,0 km/h (0 Bft)
06.10.2013 14:30 16,3 C 15,6 C 75 % 1025,4 hPa 0,0 l/m 0 min 0 min 1,1 UV-I 171 W/m 0,0 km/h (0 Bft)
06.10.2013 14:32 16,3 C 15,6 C 76 % 1025,4 hPa 0,0 l/m 0 min 0 min 1,2 UV-I 206 W/m 0,0 km/h (0 Bft)
06.10.2013 14:34 16,3 C 15,6 C 77 % 1025,4 hPa 0,0 l/m 0 min 0 min 1,5 UV-I 285 W/m 0,0 km/h (0 Bft)
06.10.2013 14:36 16,4 C 15,6 C 74 % 1025,4 hPa 0,0 l/m 2 min 0 min 1,8 UV-I 512 W/m 0,0 km/h (0 Bft)
06.10.2013 14:38 16,6 C 16,1 C 75 % 1025,4 hPa 0,0 l/m 2 min 0 min 1,8 UV-I 545 W/m 0,0 km/h (0 Bft)
06.10.2013 14:40 16,8 C 16,1 C 73 % 1025,3 hPa 0,0 l/m 2 min 0 min 1,7 UV-I 550 W/m 0,0 km/h (0 Bft)
06.10.2013 14:42 16,9 C 16,1 C 74 % 1025,3 hPa 0,0 l/m 2 min 0 min 1,7 UV-I 545 W/m 0,0 km/h (0 Bft)
06.10.2013 14:44 17,2 C 16,1 C 73 % 1025,3 hPa 0,0 l/m 2 min 0 min 1,7 UV-I 501 W/m 0,0 km/h (0 Bft)
06.10.2013 14:46 17,4 C 16,1 C 71 % 1025,4 hPa 0,0 l/m 2 min 0 min 1,7 UV-I 483 W/m 0,0 km/h (0 Bft)
06.10.2013 14:48 17,4 C 16,1 C 72 % 1025,3 hPa 0,0 l/m 2 min 0 min 1,6 UV-I 475 W/m 0,0 km/h (0 Bft)
06.10.2013 14:50 17,3 C 16,1 C 72 % 1025,3 hPa 0,0 l/m 2 min 0 min 1,6 UV-I 480 W/m 0,0 km/h (0 Bft)
06.10.2013 14:52 17,4 C 16,1 C 72 % 1025,3 hPa 0,0 l/m 2 min 0 min 1,6 UV-I 490 W/m 0,0 km/h (0 Bft)
06.10.2013 14:54 17,5 C 16,1 C 72 % 1025,3 hPa 0,0 l/m 2 min 0 min 1,6 UV-I 489 W/m 0,0 km/h (0 Bft)
06.10.2013 14:56 17,6 C 16,1 C 71 % 1025,3 hPa 0,0 l/m 2 min 0 min 1,1 UV-I 475 W/m 0,0 km/h (0 Bft)
06.10.2013 14:58 17,4 C 16,1 C 71 % 1025,3 hPa 0,0 l/m 0 min 0 min 1,3 UV-I 250 W/m 0,0 km/h (0 Bft)
06.10.2013 15:00 17,2 C 16,1 C 71 % 1025,3 hPa 0,0 l/m 2 min 0 min 1,2 UV-I 292 W/m 0,0 km/h (0 Bft)
06.10.2013 15:02 17,2 C 16,1 C 73 % 1025,3 hPa 0,0 l/m 2 min 0 min 1,1 UV-I 339 W/m 0,0 km/h (0 Bft)
06.10.2013 15:06 17,1 C 16,1 C 71 % 1025,2 hPa 0,0 l/m 0 min 0 min 1,0 UV-I 193 W/m 0,0 km/h (0 Bft)
06.10.2013 15:08 16,9 C 16,1 C 71 % 1025,2 hPa 0,0 l/m 0 min 0 min 0,9 UV-I 227 W/m 0,0 km/h (0 Bft)
06.10.2013 15:10 16,8 C 16,1 C 72 % 1025,2 hPa 0,0 l/m 0 min 0 min 0,8 UV-I 229 W/m 0,0 km/h (0 Bft)
06.10.2013 15:12 16,8 C 16,1 C 73 % 1025,2 hPa 0,0 l/m 0 min 0 min 0,8 UV-I 227 W/m 0,0 km/h (0 Bft)
06.10.2013 15:14 16,9 C 16,1 C 75 % 1025,3 hPa 0,0 l/m 0 min 0 min 0,7 UV-I 207 W/m 0,0 km/h (0 Bft)
06.10.2013 15:16 16,9 C 16,1 C 73 % 1025,2 hPa 0,0 l/m 0 min 0 min 0,6 UV-I 200 W/m 0,0 km/h (0 Bft)
06.10.2013 15:18 16,9 C 16,1 C 73 % 1025,3 hPa 0,0 l/m 0 min 0 min 0,6 UV-I 195 W/m 0,0 km/h (0 Bft)
06.10.2013 15:20 16,8 C 16,1 C 73 % 1025,3 hPa 0,0 l/m 0 min 0 min 0,5 UV-I 183 W/m 0,0 km/h (0 Bft)
06.10.2013 15:22 16,7 C 16,1 C 73 % 1025,2 hPa 0,0 l/m 0 min 0 min 0,0 UV-I 172 W/m 0,0 km/h (0 Bft)
06.10.2013 15:24 16,7 C 16,1 C 73 % 1025,3 hPa 0,0 l/m 0 min 0 min 0,0 UV-I 158 W/m 0,0 km/h (0 Bft)
06.10.2013 15:26 16,6 C 16,1 C 74 % 1025,3 hPa 0,0 l/m 0 min 0 min 0,0 UV-I 149 W/m 0,0 km/h (0 Bft)
06.10.2013 15:28 16,6 C 16,1 C 73 % 1025,3 hPa 0,0 l/m 0 min 0 min 0,0 UV-I 137 W/m 0,0 km/h (0 Bft)
06.10.2013 15:30 16,6 C 15,6 C 74 % 1025,2 hPa 0,0 l/m 0 min 0 min 0,0 UV-I 123 W/m 0,0 km/h (0 Bft)
06.10.2013 15:32 16,6 C 15,6 C 74 % 1025,2 hPa 0,0 l/m 0 min 0 min 0,0 UV-I 116 W/m 0,0 km/h (0 Bft)
06.10.2013 15:34 16,6 C 15,6 C 74 % 1025,2 hPa 0,0 l/m 0 min 0 min 0,0 UV-I 105 W/m 0,0 km/h (0 Bft)
06.10.2013 15:36 16,5 C 15,6 C 74 % 1025,2 hPa 0,0 l/m 0 min 0 min 0,0 UV-I 91 W/m 0,0 km/h (0 Bft)
06.10.2013 15:38 16,4 C 15,6 C 74 % 1025,2 hPa 0,0 l/m 0 min 0 min 0,0 UV-I 90 W/m 0,0 km/h (0 Bft)
06.10.2013 15:40 16,4 C 15,6 C 75 % 1025,2 hPa 0,0 l/m 0 min 0 min 0,5 UV-I 90 W/m 0,0 km/h (0 Bft)
06.10.2013 15:42 16,4 C 15,0 C 75 % 1025,2 hPa 0,0 l/m 0 min 0 min 0,5 UV-I 100 W/m 0,0 km/h (0 Bft)
06.10.2013 15:44 16,3 C 15,0 C 75 % 1025,2 hPa 0,0 l/m 0 min 0 min 0,6 UV-I 128 W/m 0,0 km/h (0 Bft)
06.10.2013 15:46 16,3 C 15,0 C 74 % 1025,2 hPa 0,0 l/m 0 min 0 min 0,8 UV-I 195 W/m 0,0 km/h (0 Bft)
06.10.2013 15:48 16,3 C 15,6 C 74 % 1025,3 hPa 0,0 l/m 2 min 0 min 0,8 UV-I 417 W/m 0,0 km/h (0 Bft)
06.10.2013 15:50 16,4 C 15,6 C 75 % 1025,3 hPa 0,0 l/m 2 min 0 min 0,6 UV-I 401 W/m 0,0 km/h (0 Bft)
06.10.2013 15:52 16,4 C 15,6 C 73 % 1025,3 hPa 0,0 l/m 2 min 0 min 0,6 UV-I 401 W/m 0,0 km/h (0 Bft)
06.10.2013 15:54 16,4 C 15,6 C 73 % 1025,2 hPa 0,0 l/m 0 min 0 min 0,5 UV-I 178 W/m 0,0 km/h (0 Bft)
06.10.2013 15:56 16,5 C 15,6 C 75 % 1025,3 hPa 0,0 l/m 0 min 0 min 0,5 UV-I 181 W/m 0,0 km/h (0 Bft)
06.10.2013 15:58 16,5 C 16,1 C 75 % 1025,3 hPa 0,0 l/m 0 min 0 min 0,0 UV-I 181 W/m 0,0 km/h (0 Bft)
06.10.2013 16:00 16,6 C 16,1 C 74 % 1025,3 hPa 0,0 l/m 0 min 0 min 0,0 UV-I 176 W/m 0,0 km/h (0 Bft)
06.10.2013 16:02 16,7 C 16,1 C 76 % 1025,3 hPa 0,0 l/m 0 min 0 min 0,0 UV-I 172 W/m 0,0 km/h (0 Bft)
06.10.2013 16:06 16,8 C 16,1 C 75 % 1025,3 hPa 0,0 l/m 0 min 0 min 0,0 UV-I 155 W/m 0,0 km/h (0 Bft)
06.10.2013 16:08 16,7 C 16,1 C 74 % 1025,3 hPa 0,0 l/m 0 min 0 min 0,0 UV-I 151 W/m 0,0 km/h (0 Bft)
06.10.2013 16:10 16,7 C 16,1 C 74 % 1025,3 hPa 0,0 l/m 0 min 0 min 0,0 UV-I 149 W/m 0,0 km/h (0 Bft)
06.10.2013 16:12 16,6 C 16,1 C 74 % 1025,3 hPa 0,0 l/m 0 min 0 min 0,0 UV-I 148 W/m 0,0 km/h (0 Bft)
06.10.2013 16:14 16,7 C 16,1 C 74 % 1025,3 hPa 0,0 l/m 0 min 0 min 0,0 UV-I 148 W/m 0,0 km/h (0 Bft)
06.10.2013 16:16 16,6 C 16,1 C 74 % 1025,3 hPa 0,0 l/m 0 min 0 min 0,0 UV-I 146 W/m 0,0 km/h (0 Bft)
06.10.2013 16:18 16,6 C 16,1 C 76 % 1025,3 hPa 0,0 l/m 0 min 0 min 0,0 UV-I 137 W/m 0,0 km/h (0 Bft)
06.10.2013 16:20 16,6 C 16,1 C 75 % 1025,3 hPa 0,0 l/m 0 min 0 min 0,0 UV-I 135 W/m 0,0 km/h (0 Bft)
06.10.2013 16:22 16,6 C 16,1 C 75 % 1025,3 hPa 0,0 l/m 0 min 0 min 0,0 UV-I 127 W/m 0,0 km/h (0 Bft)
06.10.2013 16:24 16,6 C 16,1 C 76 % 1025,3 hPa 0,0 l/m 0 min 0 min 0,0 UV-I 116 W/m 0,0 km/h (0 Bft)
06.10.2013 16:26 16,6 C 16,1 C 76 % 1025,3 hPa 0,0 l/m 0 min 0 min 0,0 UV-I 109 W/m 0,0 km/h (0 Bft)
06.10.2013 16:28 16,6 C 16,1 C 75 % 1025,3 hPa 0,0 l/m 0 min 0 min 0,0 UV-I 102 W/m 0,0 km/h (0 Bft)
06.10.2013 16:30 16,6 C 16,1 C 76 % 1025,3 hPa 0,0 l/m 0 min 0 min 0,0 UV-I 98 W/m 0,0 km/h (0 Bft)
06.10.2013 16:32 16,6 C 16,1 C 75 % 1025,4 hPa 0,0 l/m 0 min 0 min 0,0 UV-I 97 W/m 0,0 km/h (0 Bft)
06.10.2013 16:34 16,6 C 15,6 C 75 % 1025,4 hPa 0,0 l/m 0 min 0 min 0,0 UV-I 95 W/m 0,0 km/h (0 Bft)
06.10.2013 16:36 16,5 C 15,6 C 76 % 1025,4 hPa 0,0 l/m 0 min 0 min 0,0 UV-I 91 W/m 0,0 km/h (0 Bft)
06.10.2013 16:38 16,5 C 15,6 C 76 % 1025,3 hPa 0,0 l/m 0 min 0 min 0,0 UV-I 90 W/m 0,0 km/h (0 Bft)
06.10.2013 16:40 16,4 C 15,6 C 76 % 1025,3 hPa 0,0 l/m 0 min 0 min 0,0 UV-I 90 W/m 0,0 km/h (0 Bft)
06.10.2013 16:42 16,4 C 15,6 C 76 % 1025,4 hPa 0,0 l/m 0 min 0 min 0,0 UV-I 88 W/m 0,0 km/h (0 Bft)
06.10.2013 16:44 16,4 C 15,6 C 76 % 1025,3 hPa 0,0 l/m 0 min 0 min 0,0 UV-I 90 W/m 0,0 km/h (0 Bft)
06.10.2013 16:46 16,4 C 15,6 C 76 % 1025,4 hPa 0,0 l/m 0 min 0 min 0,0 UV-I 90 W/m 0,0 km/h (0 Bft)
06.10.2013 16:48 16,4 C 15,6 C 77 % 1025,4 hPa 0,0 l/m 0 min 0 min 0,0 UV-I 91 W/m 0,0 km/h (0 Bft)
06.10.2013 16:50 16,4 C 15,6 C 76 % 1025,4 hPa 0,0 l/m 0 min 0 min 0,0 UV-I 93 W/m 0,0 km/h (0 Bft)
06.10.2013 16:52 16,4 C 15,6 C 76 % 1025,4 hPa 0,0 l/m 0 min 0 min 0,0 UV-I 93 W/m 0,0 km/h (0 Bft)
06.10.2013 16:54 16,4 C 15,6 C 77 % 1025,4 hPa 0,0 l/m 0 min 0 min 0,0 UV-I 93 W/m 0,0 km/h (0 Bft)
06.10.2013 16:56 16,4 C 15,6 C 77 % 1025,3 hPa 0,0 l/m 0 min 0 min 0,0 UV-I 91 W/m 0,0 km/h (0 Bft)
06.10.2013 16:58 16,4 C 15,6 C 77 % 1025,2 hPa 0,0 l/m 0 min 0 min 0,0 UV-I 88 W/m 0,0 km/h (0 Bft)
06.10.2013 17:00 16,3 C 15,6 C 78 % 1025,3 hPa 0,0 l/m 0 min 0 min 0,0 UV-I 86 W/m 0,0 km/h (0 Bft)
06.10.2013 17:02 16,4 C 15,6 C 77 % 1025,3 hPa 0,0 l/m 0 min 0 min 0,0 UV-I 86 W/m 0,0 km/h (0 Bft)
06.10.2013 17:06 16,4 C 15,6 C 79 % 1025,3 hPa 0,0 l/m 0 min 0 min 0,0 UV-I 84 W/m 0,0 km/h (0 Bft)
06.10.2013 17:08 16,4 C 15,6 C 78 % 1025,3 hPa 0,0 l/m 0 min 0 min 0,0 UV-I 84 W/m 0,0 km/h (0 Bft)
06.10.2013 17:10 16,3 C 15,6 C 77 % 1025,3 hPa 0,0 l/m 0 min 0 min 0,0 UV-I 83 W/m 0,0 km/h (0 Bft)
06.10.2013 17:12 16,3 C 15,6 C 75 % 1025,2 hPa 0,0 l/m 0 min 0 min 0,0 UV-I 83 W/m 0,0 km/h (0 Bft)
06.10.2013 17:14 16,4 C 15,6 C 75 % 1025,2 hPa 0,0 l/m 0 min 0 min 0,0 UV-I 84 W/m 0,0 km/h (0 Bft)
06.10.2013 17:16 16,3 C 15,6 C 76 % 1025,2 hPa 0,0 l/m 0 min 0 min 0,0 UV-I 84 W/m 0,0 km/h (0 Bft)
06.10.2013 17:18 16,3 C 15,6 C 75 % 1025,2 hPa 0,0 l/m 0 min 0 min 0,0 UV-I 84 W/m 0,0 km/h (0 Bft)
06.10.2013 17:20 16,3 C 15,6 C 73 % 1025,2 hPa 0,0 l/m 0 min 0 min 0,0 UV-I 84 W/m 0,0 km/h (0 Bft)
06.10.2013 17:22 16,3 C 15,6 C 75 % 1025,1 hPa 0,0 l/m 0 min 0 min 0,0 UV-I 84 W/m 0,0 km/h (0 Bft)
06.10.2013 17:24 16,3 C 15,6 C 76 % 1025,2 hPa 0,0 l/m 0 min 0 min 0,0 UV-I 84 W/m 0,0 km/h (0 Bft)
06.10.2013 17:26 16,3 C 15,6 C 76 % 1025,2 hPa 0,0 l/m 0 min 0 min 0,0 UV-I 83 W/m 0,0 km/h (0 Bft)
06.10.2013 17:28 16,3 C 15,6 C 76 % 1025,1 hPa 0,0 l/m 0 min 0 min 0,0 UV-I 77 W/m 0,0 km/h (0 Bft)
06.10.2013 17:30 16,3 C 15,0 C 77 % 1025,1 hPa 0,0 l/m 0 min 0 min 0,0 UV-I 76 W/m 0,0 km/h (0 Bft)
06.10.2013 17:32 16,2 C 15,0 C 75 % 1025,1 hPa 0,0 l/m 0 min 0 min 0,0 UV-I 74 W/m 0,0 km/h (0 Bft)
06.10.2013 17:34 16,2 C 15,0 C 75 % 1025,2 hPa 0,0 l/m 0 min 0 min 0,0 UV-I 72 W/m 0,0 km/h (0 Bft)
06.10.2013 17:36 16,2 C 15,0 C 75 % 1025,2 hPa 0,0 l/m 0 min 0 min 0,0 UV-I 74 W/m 0,0 km/h (0 Bft)
06.10.2013 17:38 16,2 C 15,0 C 77 % 1025,2 hPa 0,0 l/m 0 min 0 min 0,0 UV-I 79 W/m 0,0 km/h (0 Bft)
06.10.2013 17:40 16,2 C 15,0 C 78 % 1025,2 hPa 0,0 l/m 0 min 0 min 0,0 UV-I 77 W/m 0,0 km/h (0 Bft)
06.10.2013 17:42 16,2 C 15,0 C 77 % 1025,2 hPa 0,0 l/m 0 min 0 min 0,0 UV-I 76 W/m 0,0 km/h (0 Bft)
06.10.2013 17:44 16,2 C 15,0 C 76 % 1025,2 hPa 0,0 l/m 0 min 0 min 0,0 UV-I 74 W/m 0,0 km/h (0 Bft)
06.10.2013 17:46 16,2 C 15,0 C 76 % 1025,1 hPa 0,0 l/m 0 min 0 min 0,0 UV-I 67 W/m 0,0 km/h (0 Bft)
06.10.2013 17:48 16,2 C 15,0 C 75 % 1025,2 hPa 0,0 l/m 0 min 0 min 0,0 UV-I 63 W/m 0,0 km/h (0 Bft)
06.10.2013 17:50 16,2 C 15,0 C 77 % 1025,2 hPa 0,0 l/m 0 min 0 min 0,0 UV-I 60 W/m 0,0 km/h (0 Bft)
06.10.2013 17:52 16,1 C 15,0 C 77 % 1025,2 hPa 0,0 l/m 0 min 0 min 0,0 UV-I 60 W/m 0,0 km/h (0 Bft)
06.10.2013 17:54 16,1 C 15,0 C 79 % 1025,2 hPa 0,0 l/m 0 min 0 min 0,0 UV-I 58 W/m 0,0 km/h (0 Bft)
06.10.2013 17:56 16,1 C 15,0 C 80 % 1025,2 hPa 0,0 l/m 0 min 0 min 0,0 UV-I 56 W/m 0,0 km/h (0 Bft)
06.10.2013 17:58 16,0 C 15,0 C 80 % 1025,3 hPa 0,0 l/m 0 min 0 min 0,0 UV-I 49 W/m 0,0 km/h (0 Bft)
06.10.2013 18:00 16,0 C 14,4 C 80 % 1025,3 hPa 0,0 l/m 0 min 0 min 0,0 UV-I 47 W/m 0,0 km/h (0 Bft)
06.10.2013 18:02 15,9 C 14,4 C 80 % 1025,3 hPa 0,0 l/m 0 min 0 min 0,0 UV-I 46 W/m 0,0 km/h (0 Bft)
06.10.2013 18:06 15,8 C 14,4 C 79 % 1025,2 hPa 0,0 l/m 0 min 0 min 0,0 UV-I 42 W/m 0,0 km/h (0 Bft)
06.10.2013 18:08 15,8 C 14,4 C 80 % 1025,3 hPa 0,0 l/m 0 min 0 min 0,0 UV-I 39 W/m 0,0 km/h (0 Bft)
06.10.2013 18:10 15,7 C 13,9 C 80 % 1025,3 hPa 0,0 l/m 0 min 0 min 0,0 UV-I 35 W/m 0,0 km/h (0 Bft)
06.10.2013 18:12 15,7 C 13,9 C 81 % 1025,3 hPa 0,0 l/m 0 min 0 min 0,0 UV-I 33 W/m 0,0 km/h (0 Bft)
06.10.2013 18:14 15,7 C 13,9 C 81 % 1025,4 hPa 0,0 l/m 0 min 0 min 0,0 UV-I 32 W/m 0,0 km/h (0 Bft)
06.10.2013 18:16 15,6 C 13,9 C 81 % 1025,4 hPa 0,0 l/m 0 min 0 min 0,0 UV-I 28 W/m 0,0 km/h (0 Bft)
06.10.2013 18:18 15,6 C 13,9 C 82 % 1025,4 hPa 0,0 l/m 0 min 0 min 0,0 UV-I 28 W/m 0,0 km/h (0 Bft)
06.10.2013 18:20 15,5 C 13,9 C 82 % 1025,4 hPa 0,0 l/m 0 min 0 min 0,0 UV-I 26 W/m 0,0 km/h (0 Bft)
06.10.2013 18:22 15,4 C 13,9 C 82 % 1025,4 hPa 0,0 l/m 0 min 0 min 0,0 UV-I 25 W/m 0,0 km/h (0 Bft)
06.10.2013 18:24 15,4 C 13,9 C 82 % 1025,3 hPa 0,0 l/m 0 min 0 min 0,0 UV-I 23 W/m 0,0 km/h (0 Bft)
06.10.2013 18:26 15,4 C 13,9 C 82 % 1025,3 hPa 0,0 l/m 0 min 0 min 0,0 UV-I 21 W/m 0,0 km/h (0 Bft)
06.10.2013 18:28 15,4 C 13,9 C 83 % 1025,4 hPa 0,0 l/m 0 min 0 min 0,0 UV-I 19 W/m 0,0 km/h (0 Bft)
06.10.2013 18:30 15,3 C 13,9 C 83 % 1025,4 hPa 0,0 l/m 0 min 0 min 0,0 UV-I 19 W/m 0,0 km/h (0 Bft)
06.10.2013 18:32 15,3 C 13,9 C 83 % 1025,4 hPa 0,0 l/m 0 min 0 min 0,0 UV-I 16 W/m 0,0 km/h (0 Bft)
06.10.2013 18:34 15,3 C 13,9 C 83 % 1025,4 hPa 0,0 l/m 0 min 0 min 0,0 UV-I 16 W/m 0,0 km/h (0 Bft)
06.10.2013 18:36 15,3 C 13,3 C 83 % 1025,4 hPa 0,0 l/m 0 min 0 min 0,0 UV-I 14 W/m 0,0 km/h (0 Bft)
06.10.2013 18:38 15,3 C 13,3 C 83 % 1025,4 hPa 0,0 l/m 0 min 0 min 0,0 UV-I 12 W/m 0,0 km/h (0 Bft)
06.10.2013 18:40 15,2 C 13,3 C 84 % 1025,4 hPa 0,0 l/m 0 min 0 min 0,0 UV-I 12 W/m 0,0 km/h (0 Bft)
06.10.2013 18:42 15,2 C 13,3 C 84 % 1025,4 hPa 0,0 l/m 0 min 0 min 0,0 UV-I 11 W/m 0,0 km/h (0 Bft)
06.10.2013 18:44 15,1 C 13,3 C 84 % 1025,5 hPa 0,0 l/m 0 min 0 min 0,0 UV-I 11 W/m 0,0 km/h (0 Bft)
06.10.2013 18:46 15,1 C 13,3 C 84 % 1025,5 hPa 0,0 l/m 0 min 0 min 0,0 UV-I 9 W/m 0,0 km/h (0 Bft)
06.10.2013 18:48 15,1 C 13,3 C 85 % 1025,5 hPa 0,0 l/m 0 min 0 min 0,0 UV-I 7 W/m 0,0 km/h (0 Bft)
06.10.2013 18:50 15,0 C 13,3 C 85 % 1025,5 hPa 0,0 l/m 0 min 0 min 0,0 UV-I 7 W/m 0,0 km/h (0 Bft)
06.10.2013 18:52 14,9 C 13,3 C 86 % 1025,5 hPa 0,0 l/m 0 min 0 min 0,0 UV-I 5 W/m 0,0 km/h (0 Bft)
06.10.2013 18:54 14,9 C 13,3 C 86 % 1025,5 hPa 0,0 l/m 0 min 0 min 0,0 UV-I 5 W/m 0,0 km/h (0 Bft)
06.10.2013 18:56 14,9 C 13,3 C 86 % 1025,5 hPa 0,0 l/m 0 min 0 min 0,0 UV-I 5 W/m 0,0 km/h (0 Bft)
06.10.2013 18:58 14,8 C 12,8 C 86 % 1025,5 hPa 0,0 l/m 0 min 0 min 0,0 UV-I 5 W/m 0,0 km/h (0 Bft)
06.10.2013 19:00 14,8 C 12,8 C 86 % 1025,5 hPa 0,0 l/m 0 min 0 min 0,0 UV-I 0 W/m 0,0 km/h (0 Bft)
06.10.2013 19:02 14,7 C 12,8 C 87 % 1025,5 hPa 0,0 l/m 0 min 0 min 0,0 UV-I 0 W/m 0,0 km/h (0 Bft)
06.10.2013 19:06 14,6 C 12,8 C 87 % 1025,5 hPa 0,0 l/m 0 min 0 min 0,0 UV-I 0 W/m 0,0 km/h (0 Bft)
06.10.2013 19:08 14,5 C 12,8 C 87 % 1025,5 hPa 0,0 l/m 0 min 0 min 0,0 UV-I 0 W/m 0,0 km/h (0 Bft)
06.10.2013 19:10 14,4 C 12,8 C 87 % 1025,6 hPa 0,0 l/m 0 min 0 min 0,0 UV-I 0 W/m 0,0 km/h (0 Bft)
06.10.2013 19:12 14,4 C 12,8 C 88 % 1025,6 hPa 0,0 l/m 0 min 0 min 0,0 UV-I 0 W/m 0,0 km/h (0 Bft)
06.10.2013 19:14 14,3 C 12,8 C 88 % 1025,6 hPa 0,0 l/m 0 min 0 min 0,0 UV-I 0 W/m 0,0 km/h (0 Bft)
06.10.2013 19:16 14,2 C 12,8 C 88 % 1025,6 hPa 0,0 l/m 0 min 0 min 0,0 UV-I 0 W/m 0,0 km/h (0 Bft)
06.10.2013 19:18 14,2 C 12,8 C 88 % 1025,6 hPa 0,0 l/m 0 min 0 min 0,0 UV-I 0 W/m 0,0 km/h (0 Bft)
06.10.2013 19:20 14,2 C 12,2 C 89 % 1025,6 hPa 0,0 l/m 0 min 0 min 0,0 UV-I 0 W/m 0,0 km/h (0 Bft)
06.10.2013 19:22 14,2 C 12,2 C 89 % 1025,6 hPa 0,0 l/m 0 min 0 min 0,0 UV-I 0 W/m 0,0 km/h (0 Bft)
06.10.2013 19:24 14,2 C 12,2 C 89 % 1025,6 hPa 0,0 l/m 0 min 0 min 0,0 UV-I 0 W/m 0,0 km/h (0 Bft)
06.10.2013 19:26 14,2 C 12,2 C 89 % 1025,6 hPa 0,0 l/m 0 min 0 min 0,0 UV-I 0 W/m 0,0 km/h (0 Bft)
06.10.2013 19:28 14,1 C 12,2 C 89 % 1025,6 hPa 0,0 l/m 0 min 0 min 0,0 UV-I 0 W/m 0,0 km/h (0 Bft)
06.10.2013 19:30 14,1 C 12,2 C 89 % 1025,6 hPa 0,0 l/m 0 min 0 min 0,0 UV-I 0 W/m 0,0 km/h (0 Bft)
06.10.2013 19:32 14,0 C 12,2 C 89 % 1025,6 hPa 0,0 l/m 0 min 0 min 0,0 UV-I 0 W/m 0,0 km/h (0 Bft)
06.10.2013 19:34 13,9 C 12,2 C 89 % 1025,7 hPa 0,0 l/m 0 min 0 min 0,0 UV-I 0 W/m 0,0 km/h (0 Bft)
06.10.2013 19:36 13,8 C 11,7 C 89 % 1025,7 hPa 0,0 l/m 0 min 0 min 0,0 UV-I 0 W/m 0,0 km/h (0 Bft)
06.10.2013 19:38 13,8 C 11,7 C 90 % 1025,8 hPa 0,0 l/m 0 min 0 min 0,0 UV-I 0 W/m 0,0 km/h (0 Bft)
06.10.2013 19:40 13,8 C 11,7 C 90 % 1025,9 hPa 0,0 l/m 0 min 0 min 0,0 UV-I 0 W/m 0,0 km/h (0 Bft)
06.10.2013 19:42 13,8 C 12,2 C 90 % 1025,9 hPa 0,0 l/m 0 min 0 min 0,0 UV-I 0 W/m 0,0 km/h (0 Bft)
06.10.2013 19:44 13,8 C 12,2 C 90 % 1025,9 hPa 0,0 l/m 0 min 0 min 0,0 UV-I 0 W/m 0,0 km/h (0 Bft)
06.10.2013 19:46 13,8 C 12,2 C 90 % 1025,8 hPa 0,0 l/m 0 min 0 min 0,0 UV-I 0 W/m 0,0 km/h (0 Bft)
06.10.2013 19:48 13,8 C 12,2 C 90 % 1025,9 hPa 0,0 l/m 0 min 0 min 0,0 UV-I 0 W/m 0,0 km/h (0 Bft)
06.10.2013 19:50 13,8 C 12,2 C 90 % 1026,0 hPa 0,0 l/m 0 min 0 min 0,0 UV-I 0 W/m 0,0 km/h (0 Bft)
06.10.2013 19:52 13,8 C 12,2 C 90 % 1026,0 hPa 0,0 l/m 0 min 0 min 0,0 UV-I 0 W/m 0,0 km/h (0 Bft)
06.10.2013 19:54 13,8 C 12,2 C 90 % 1026,0 hPa 0,0 l/m 0 min 0 min 0,0 UV-I 0 W/m 0,0 km/h (0 Bft)
06.10.2013 19:56 13,8 C 12,2 C 90 % 1026,0 hPa 0,0 l/m 0 min 0 min 0,0 UV-I 0 W/m 0,0 km/h (0 Bft)
06.10.2013 19:58 13,8 C 12,2 C 91 % 1026,0 hPa 0,0 l/m 0 min 0 min 0,0 UV-I 0 W/m 0,0 km/h (0 Bft)
06.10.2013 20:00 13,8 C 12,2 C 91 % 1026,0 hPa 0,0 l/m 0 min 0 min 0,0 UV-I 0 W/m 0,0 km/h (0 Bft)
06.10.2013 20:02 13,8 C 12,2 C 91 % 1026,0 hPa 0,0 l/m 0 min 0 min 0,0 UV-I 0 W/m 0,0 km/h (0 Bft)
06.10.2013 20:06 13,8 C 12,2 C 91 % 1026,0 hPa 0,0 l/m 0 min 0 min 0,0 UV-I 0 W/m 0,0 km/h (0 Bft)
06.10.2013 20:08 13,7 C 12,2 C 91 % 1026,1 hPa 0,0 l/m 0 min 0 min 0,0 UV-I 0 W/m 0,0 km/h (0 Bft)
06.10.2013 20:10 13,7 C 12,2 C 91 % 1026,0 hPa 0,0 l/m 0 min 0 min 0,0 UV-I 0 W/m 0,0 km/h (0 Bft)
06.10.2013 20:12 13,7 C 12,2 C 91 % 1026,0 hPa 0,0 l/m 0 min 0 min 0,0 UV-I 0 W/m 0,0 km/h (0 Bft)
06.10.2013 20:14 13,7 C 12,2 C 91 % 1026,0 hPa 0,0 l/m 0 min 0 min 0,0 UV-I 0 W/m 0,0 km/h (0 Bft)
06.10.2013 20:16 13,7 C 12,2 C 91 % 1026,0 hPa 0,0 l/m 0 min 0 min 0,0 UV-I 0 W/m 0,0 km/h (0 Bft)
06.10.2013 20:18 13,7 C 12,2 C 91 % 1026,0 hPa 0,0 l/m 0 min 0 min 0,0 UV-I 0 W/m 0,0 km/h (0 Bft)
06.10.2013 20:20 13,7 C 12,2 C 91 % 1026,0 hPa 0,0 l/m 0 min 0 min 0,0 UV-I 0 W/m 0,0 km/h (0 Bft)
06.10.2013 20:22 13,7 C 12,2 C 91 % 1026,0 hPa 0,0 l/m 0 min 0 min 0,0 UV-I 0 W/m 0,0 km/h (0 Bft)
06.10.2013 20:24 13,7 C 12,2 C 91 % 1026,0 hPa 0,0 l/m 0 min 0 min 0,0 UV-I 0 W/m 0,0 km/h (0 Bft)
06.10.2013 20:26 13,7 C 12,2 C 91 % 1026,0 hPa 0,0 l/m 0 min 0 min 0,0 UV-I 0 W/m 0,0 km/h (0 Bft)
06.10.2013 20:28 13,7 C 12,2 C 91 % 1026,0 hPa 0,0 l/m 0 min 0 min 0,0 UV-I 0 W/m 0,0 km/h (0 Bft)
06.10.2013 20:30 13,7 C 12,2 C 91 % 1026,0 hPa 0,0 l/m 0 min 0 min 0,0 UV-I 0 W/m 0,0 km/h (0 Bft)
06.10.2013 20:32 13,7 C 12,2 C 91 % 1026,0 hPa 0,0 l/m 0 min 0 min 0,0 UV-I 0 W/m 0,0 km/h (0 Bft)
06.10.2013 20:34 13,7 C 12,2 C 92 % 1026,0 hPa 0,0 l/m 0 min 0 min 0,0 UV-I 0 W/m 0,0 km/h (0 Bft)
06.10.2013 20:36 13,7 C 12,2 C 92 % 1026,1 hPa 0,0 l/m 0 min 0 min 0,0 UV-I 0 W/m 0,0 km/h (0 Bft)
06.10.2013 20:38 13,7 C 12,2 C 92 % 1026,1 hPa 0,0 l/m 0 min 0 min 0,0 UV-I 0 W/m 0,0 km/h (0 Bft)
06.10.2013 20:40 13,6 C 12,2 C 92 % 1026,0 hPa 0,0 l/m 0 min 0 min 0,0 UV-I 0 W/m 0,0 km/h (0 Bft)
06.10.2013 20:42 13,6 C 12,2 C 92 % 1026,0 hPa 0,0 l/m 0 min 0 min 0,0 UV-I 0 W/m 0,0 km/h (0 Bft)
06.10.2013 20:44 13,6 C 12,2 C 92 % 1026,1 hPa 0,0 l/m 0 min 0 min 0,0 UV-I 0 W/m 0,0 km/h (0 Bft)
06.10.2013 20:46 13,6 C 12,2 C 92 % 1026,1 hPa 0,0 l/m 0 min 0 min 0,0 UV-I 0 W/m 0,0 km/h (0 Bft)
06.10.2013 20:48 13,6 C 12,2 C 92 % 1026,1 hPa 0,0 l/m 0 min 0 min 0,0 UV-I 0 W/m 0,0 km/h (0 Bft)
06.10.2013 20:50 13,6 C 12,2 C 92 % 1026,1 hPa 0,0 l/m 0 min 0 min 0,0 UV-I 0 W/m 0,0 km/h (0 Bft)
06.10.2013 20:52 13,6 C 12,2 C 92 % 1026,1 hPa 0,0 l/m 0 min 0 min 0,0 UV-I 0 W/m 0,0 km/h (0 Bft)
06.10.2013 20:54 13,6 C 12,2 C 92 % 1026,1 hPa 0,0 l/m 0 min 0 min 0,0 UV-I 0 W/m 0,0 km/h (0 Bft)
06.10.2013 20:56 13,6 C 12,2 C 92 % 1026,1 hPa 0,0 l/m 0 min 0 min 0,0 UV-I 0 W/m 0,0 km/h (0 Bft)
06.10.2013 20:58 13,6 C 12,2 C 92 % 1026,1 hPa 0,0 l/m 0 min 0 min 0,0 UV-I 0 W/m 0,0 km/h (0 Bft)
06.10.2013 21:00 13,6 C 12,2 C 92 % 1026,1 hPa 0,0 l/m 0 min 0 min 0,0 UV-I 0 W/m 0,0 km/h (0 Bft)
06.10.2013 21:02 13,6 C 12,2 C 92 % 1026,1 hPa 0,0 l/m 0 min 0 min 0,0 UV-I 0 W/m 0,0 km/h (0 Bft)
06.10.2013 21:06 13,5 C 12,2 C 93 % 1026,1 hPa 0,0 l/m 0 min 0 min 0,0 UV-I 0 W/m 0,0 km/h (0 Bft)
06.10.2013 21:08 13,5 C 12,2 C 93 % 1026,1 hPa 0,0 l/m 0 min 0 min 0,0 UV-I 0 W/m 0,0 km/h (0 Bft)
06.10.2013 21:10 13,5 C 12,2 C 93 % 1026,1 hPa 0,0 l/m 0 min 0 min 0,0 UV-I 0 W/m 0,0 km/h (0 Bft)
06.10.2013 21:12 13,5 C 12,2 C 93 % 1026,1 hPa 0,0 l/m 0 min 0 min 0,0 UV-I 0 W/m 0,0 km/h (0 Bft)
06.10.2013 21:14 13,5 C 12,2 C 93 % 1026,1 hPa 0,0 l/m 0 min 0 min 0,0 UV-I 0 W/m 0,0 km/h (0 Bft)
06.10.2013 21:16 13,5 C 12,2 C 93 % 1026,2 hPa 0,0 l/m 0 min 0 min 0,0 UV-I 0 W/m 0,0 km/h (0 Bft)
06.10.2013 21:18 13,5 C 12,2 C 93 % 1026,1 hPa 0,0 l/m 0 min 0 min 0,0 UV-I 0 W/m 0,0 km/h (0 Bft)
06.10.2013 21:20 13,5 C 12,2 C 93 % 1026,1 hPa 0,0 l/m 0 min 0 min 0,0 UV-I 0 W/m 0,0 km/h (0 Bft)
06.10.2013 21:22 13,4 C 12,2 C 93 % 1026,1 hPa 0,0 l/m 0 min 0 min 0,0 UV-I 0 W/m 0,0 km/h (0 Bft)
06.10.2013 21:24 13,4 C 12,2 C 93 % 1026,1 hPa 0,0 l/m 0 min 0 min 0,0 UV-I 0 W/m 0,0 km/h (0 Bft)
06.10.2013 21:26 13,4 C 12,2 C 93 % 1026,1 hPa 0,0 l/m 0 min 0 min 0,0 UV-I 0 W/m 0,0 km/h (0 Bft)
06.10.2013 21:28 13,3 C 11,7 C 93 % 1026,1 hPa 0,0 l/m 0 min 0 min 0,0 UV-I 0 W/m 0,0 km/h (0 Bft)
06.10.2013 21:30 13,3 C 11,7 C 93 % 1026,1 hPa 0,0 l/m 0 min 0 min 0,0 UV-I 0 W/m 0,0 km/h (0 Bft)
06.10.2013 21:32 13,3 C 11,7 C 93 % 1026,2 hPa 0,0 l/m 0 min 0 min 0,0 UV-I 0 W/m 0,0 km/h (0 Bft)
06.10.2013 21:34 13,2 C 11,7 C 93 % 1026,2 hPa 0,0 l/m 0 min 0 min 0,0 UV-I 0 W/m 0,0 km/h (0 Bft)
06.10.2013 21:36 13,2 C 11,7 C 93 % 1026,2 hPa 0,0 l/m 0 min 0 min 0,0 UV-I 0 W/m 0,0 km/h (0 Bft)
06.10.2013 21:38 13,2 C 11,7 C 94 % 1026,2 hPa 0,0 l/m 0 min 0 min 0,0 UV-I 0 W/m 0,0 km/h (0 Bft)
06.10.2013 21:40 13,2 C 11,7 C 94 % 1026,2 hPa 0,0 l/m 0 min 0 min 0,0 UV-I 0 W/m 0,0 km/h (0 Bft)
06.10.2013 21:42 13,1 C 11,7 C 93 % 1026,2 hPa 0,0 l/m 0 min 0 min 0,0 UV-I 0 W/m 0,0 km/h (0 Bft)
06.10.2013 21:44 13,1 C 11,7 C 94 % 1026,2 hPa 0,0 l/m 0 min 0 min 0,0 UV-I 0 W/m 0,0 km/h (0 Bft)
06.10.2013 21:46 13,1 C 11,7 C 94 % 1026,2 hPa 0,0 l/m 0 min 0 min 0,0 UV-I 0 W/m 0,0 km/h (0 Bft)
06.10.2013 21:48 13,0 C 11,7 C 94 % 1026,2 hPa 0,0 l/m 0 min 0 min 0,0 UV-I 0 W/m 0,0 km/h (0 Bft)
06.10.2013 21:50 12,9 C 11,1 C 94 % 1026,2 hPa 0,0 l/m 0 min 0 min 0,0 UV-I 0 W/m 0,0 km/h (0 Bft)
06.10.2013 21:52 12,9 C 11,1 C 94 % 1026,2 hPa 0,0 l/m 0 min 0 min 0,0 UV-I 0 W/m 0,0 km/h (0 Bft)
06.10.2013 21:54 12,8 C 11,1 C 94 % 1026,2 hPa 0,0 l/m 0 min 0 min 0,0 UV-I 0 W/m 0,0 km/h (0 Bft)
06.10.2013 21:56 12,8 C 11,1 C 94 % 1026,2 hPa 0,0 l/m 0 min 0 min 0,0 UV-I 0 W/m 0,0 km/h (0 Bft)
06.10.2013 21:58 12,7 C 11,1 C 94 % 1026,1 hPa 0,0 l/m 0 min 0 min 0,0 UV-I 0 W/m 0,0 km/h (0 Bft)
06.10.2013 22:00 12,6 C 10,6 C 94 % 1026,2 hPa 0,0 l/m 0 min 0 min 0,0 UV-I 0 W/m 0,0 km/h (0 Bft)
06.10.2013 22:02 12,5 C 10,6 C 94 % 1026,1 hPa 0,0 l/m 0 min 0 min 0,0 UV-I 0 W/m 0,0 km/h (0 Bft)
06.10.2013 22:06 12,3 C 10,6 C 94 % 1026,2 hPa 0,0 l/m 0 min 0 min 0,0 UV-I 0 W/m 0,0 km/h (0 Bft)
06.10.2013 22:08 12,3 C 10,6 C 94 % 1026,2 hPa 0,0 l/m 0 min 0 min 0,0 UV-I 0 W/m 0,0 km/h (0 Bft)
06.10.2013 22:10 12,2 C 10,6 C 94 % 1026,2 hPa 0,0 l/m 0 min 0 min 0,0 UV-I 0 W/m 0,0 km/h (0 Bft)
06.10.2013 22:12 12,2 C 10,6 C 95 % 1026,2 hPa 0,0 l/m 0 min 0 min 0,0 UV-I 0 W/m 0,0 km/h (0 Bft)
06.10.2013 22:14 12,2 C 10,6 C 95 % 1026,2 hPa 0,0 l/m 0 min 0 min 0,0 UV-I 0 W/m 0,0 km/h (0 Bft)
06.10.2013 22:16 12,1 C 10,0 C 95 % 1026,2 hPa 0,0 l/m 0 min 0 min 0,0 UV-I 0 W/m 0,0 km/h (0 Bft)
06.10.2013 22:18 12,0 C 10,0 C 95 % 1026,2 hPa 0,0 l/m 0 min 0 min 0,0 UV-I 0 W/m 0,0 km/h (0 Bft)
06.10.2013 22:20 12,0 C 10,0 C 95 % 1026,2 hPa 0,0 l/m 0 min 0 min 0,0 UV-I 0 W/m 0,0 km/h (0 Bft)
06.10.2013 22:22 11,9 C 10,0 C 95 % 1026,2 hPa 0,0 l/m 0 min 0 min 0,0 UV-I 0 W/m 0,0 km/h (0 Bft)
06.10.2013 22:24 11,9 C 10,0 C 95 % 1026,2 hPa 0,0 l/m 0 min 0 min 0,0 UV-I 0 W/m 0,0 km/h (0 Bft)
06.10.2013 22:26 11,9 C 10,6 C 95 % 1026,2 hPa 0,0 l/m 0 min 0 min 0,0 UV-I 0 W/m 0,0 km/h (0 Bft)
06.10.2013 22:28 11,9 C 10,6 C 95 % 1026,2 hPa 0,0 l/m 0 min 0 min 0,0 UV-I 0 W/m 0,0 km/h (0 Bft)
06.10.2013 22:30 11,9 C 10,6 C 95 % 1026,2 hPa 0,0 l/m 0 min 0 min 0,0 UV-I 0 W/m 0,0 km/h (0 Bft)
06.10.2013 22:32 11,9 C 10,6 C 95 % 1026,2 hPa 0,0 l/m 0 min 0 min 0,0 UV-I 0 W/m 0,0 km/h (0 Bft)
06.10.2013 22:34 11,9 C 10,6 C 95 % 1026,2 hPa 0,0 l/m 0 min 0 min 0,0 UV-I 0 W/m 0,0 km/h (0 Bft)
06.10.2013 22:36 11,9 C 10,6 C 95 % 1026,2 hPa 0,0 l/m 0 min 0 min 0,0 UV-I 0 W/m 0,0 km/h (0 Bft)
06.10.2013 22:38 11,9 C 10,6 C 95 % 1026,3 hPa 0,0 l/m 0 min 0 min 0,0 UV-I 0 W/m 0,0 km/h (0 Bft)
06.10.2013 22:40 11,9 C 10,6 C 96 % 1026,3 hPa 0,0 l/m 0 min 0 min 0,0 UV-I 0 W/m 0,0 km/h (0 Bft)
06.10.2013 22:42 11,9 C 10,6 C 96 % 1026,2 hPa 0,0 l/m 0 min 0 min 0,0 UV-I 0 W/m 0,0 km/h (0 Bft)
06.10.2013 22:44 11,9 C 10,6 C 96 % 1026,2 hPa 0,0 l/m 0 min 0 min 0,0 UV-I 0 W/m 0,0 km/h (0 Bft)
06.10.2013 22:46 11,9 C 10,6 C 96 % 1026,2 hPa 0,0 l/m 0 min 0 min 0,0 UV-I 0 W/m 0,0 km/h (0 Bft)
06.10.2013 22:48 11,9 C 10,6 C 96 % 1026,2 hPa 0,0 l/m 0 min 0 min 0,0 UV-I 0 W/m 0,0 km/h (0 Bft)
06.10.2013 22:50 11,9 C 10,6 C 96 % 1026,2 hPa 0,0 l/m 0 min 0 min 0,0 UV-I 0 W/m 0,0 km/h (0 Bft)
06.10.2013 22:52 11,9 C 10,6 C 96 % 1026,3 hPa 0,0 l/m 0 min 0 min 0,0 UV-I 0 W/m 0,0 km/h (0 Bft)
06.10.2013 22:54 11,9 C 10,6 C 96 % 1026,2 hPa 0,0 l/m 0 min 0 min 0,0 UV-I 0 W/m 0,0 km/h (0 Bft)
06.10.2013 22:56 11,9 C 10,6 C 96 % 1026,3 hPa 0,0 l/m 0 min 0 min 0,0 UV-I 0 W/m 0,0 km/h (0 Bft)
06.10.2013 22:58 11,8 C 10,6 C 96 % 1026,2 hPa 0,0 l/m 0 min 0 min 0,0 UV-I 0 W/m 0,0 km/h (0 Bft)
06.10.2013 23:00 11,8 C 10,0 C 96 % 1026,3 hPa 0,0 l/m 0 min 0 min 0,0 UV-I 0 W/m 0,0 km/h (0 Bft)
06.10.2013 23:02 11,8 C 10,0 C 96 % 1026,2 hPa 0,0 l/m 0 min 0 min 0,0 UV-I 0 W/m 0,0 km/h (0 Bft)
06.10.2013 23:06 11,8 C 10,0 C 96 % 1026,2 hPa 0,0 l/m 0 min 0 min 0,0 UV-I 0 W/m 0,0 km/h (0 Bft)
06.10.2013 23:08 11,8 C 10,6 C 96 % 1026,2 hPa 0,0 l/m 0 min 0 min 0,0 UV-I 0 W/m 0,0 km/h (0 Bft)
06.10.2013 23:10 11,8 C 10,6 C 96 % 1026,2 hPa 0,0 l/m 0 min 0 min 0,0 UV-I 0 W/m 0,0 km/h (0 Bft)
06.10.2013 23:12 11,7 C 10,0 C 96 % 1026,3 hPa 0,0 l/m 0 min 0 min 0,0 UV-I 0 W/m 0,0 km/h (0 Bft)
06.10.2013 23:14 11,7 C 10,0 C 96 % 1026,3 hPa 0,0 l/m 0 min 0 min 0,0 UV-I 0 W/m 0,0 km/h (0 Bft)
06.10.2013 23:16 11,7 C 10,0 C 96 % 1026,2 hPa 0,0 l/m 0 min 0 min 0,0 UV-I 0 W/m 0,0 km/h (0 Bft)
06.10.2013 23:18 11,6 C 10,0 C 96 % 1026,2 hPa 0,0 l/m 0 min 0 min 0,0 UV-I 0 W/m 0,0 km/h (0 Bft)
06.10.2013 23:20 11,6 C 10,0 C 96 % 1026,2 hPa 0,0 l/m 0 min 0 min 0,0 UV-I 0 W/m 0,0 km/h (0 Bft)
06.10.2013 23:22 11,6 C 10,0 C 96 % 1026,2 hPa 0,0 l/m 0 min 0 min 0,0 UV-I 0 W/m 0,0 km/h (0 Bft)
06.10.2013 23:24 11,6 C 10,0 C 96 % 1026,2 hPa 0,0 l/m 0 min 0 min 0,0 UV-I 0 W/m 0,0 km/h (0 Bft)
06.10.2013 23:26 11,6 C 10,0 C 96 % 1026,3 hPa 0,0 l/m 0 min 0 min 0,0 UV-I 0 W/m 0,0 km/h (0 Bft)
06.10.2013 23:28 11,5 C 10,0 C 96 % 1026,3 hPa 0,0 l/m 0 min 0 min 0,0 UV-I 0 W/m 0,0 km/h (0 Bft)
06.10.2013 23:30 11,5 C 10,0 C 97 % 1026,3 hPa 0,0 l/m 0 min 0 min 0,0 UV-I 0 W/m 0,0 km/h (0 Bft)
06.10.2013 23:32 11,4 C 10,0 C 97 % 1026,3 hPa 0,0 l/m 0 min 0 min 0,0 UV-I 0 W/m 0,0 km/h (0 Bft)
06.10.2013 23:34 11,4 C 10,0 C 97 % 1026,3 hPa 0,0 l/m 0 min 0 min 0,0 UV-I 0 W/m 0,0 km/h (0 Bft)
06.10.2013 23:36 11,4 C 10,0 C 96 % 1026,3 hPa 0,0 l/m 0 min 0 min 0,0 UV-I 0 W/m 0,0 km/h (0 Bft)
06.10.2013 23:38 11,4 C 10,0 C 96 % 1026,2 hPa 0,0 l/m 0 min 0 min 0,0 UV-I 0 W/m 0,0 km/h (0 Bft)
06.10.2013 23:40 11,4 C 10,0 C 97 % 1026,2 hPa 0,0 l/m 0 min 0 min 0,0 UV-I 0 W/m 0,0 km/h (0 Bft)
06.10.2013 23:42 11,4 C 10,0 C 97 % 1026,2 hPa 0,0 l/m 0 min 0 min 0,0 UV-I 0 W/m 0,0 km/h (0 Bft)
06.10.2013 23:44 11,3 C 10,0 C 97 % 1026,3 hPa 0,0 l/m 0 min 0 min 0,0 UV-I 0 W/m 0,0 km/h (0 Bft)
06.10.2013 23:46 11,3 C 10,0 C 97 % 1026,2 hPa 0,0 l/m 0 min 0 min 0,0 UV-I 0 W/m 0,0 km/h (0 Bft)
06.10.2013 23:48 11,3 C 10,0 C 97 % 1026,2 hPa 0,0 l/m 0 min 0 min 0,0 UV-I 0 W/m 0,0 km/h (0 Bft)
06.10.2013 23:50 11,3 C 10,0 C 97 % 1026,2 hPa 0,0 l/m 0 min 0 min 0,0 UV-I 0 W/m 0,0 km/h (0 Bft)
06.10.2013 23:52 11,2 C 10,0 C 97 % 1026,2 hPa 0,0 l/m 0 min 0 min 0,0 UV-I 0 W/m 0,0 km/h (0 Bft)
06.10.2013 23:54 11,2 C 10,0 C 97 % 1026,1 hPa 0,0 l/m 0 min 0 min 0,0 UV-I 0 W/m 0,0 km/h (0 Bft)
06.10.2013 23:56 11,2 C 10,0 C 97 % 1026,1 hPa 0,0 l/m 0 min 0 min 0,0 UV-I 0 W/m 0,0 km/h (0 Bft)
06.10.2013 23:58 11,2 C 10,0 C 97 % 1026,1 hPa 0,0 l/m 0 min 0 min 0,0 UV-I 0 W/m 0,0 km/h (0 Bft)
_ Min-Zeit 01:00 00:46 14:46 00:00 - - - - - 00:00
Minimum _ 10,7 C 8,9 C 71 % 1022,1 hPa - - - - - 0,0 km/h (0 Bft)
_ Max-Zeit 14:56 14:38 07:48 22:38 00:00 09:52 00:00 14:10 12:18 00:00
Maximum _ 17,6 C 16,1 C 99 % 1026,3 hPa 0,0 l/m 2 min 0 min 1,8 UV-I 642 W/m 0,0 km/h
N-NW (0 Bft)
Durchschnitt _ 13,3 C 12,3 C 90 % 1024,8 hPa #0,0 l/m #1:44 h #0 min. 1,1 UV-I 168 W/m 0,0 km/h (0 Bft)
© 2013 W. Hausmann